Time,TemperatureF,DewpointF,PressureIn,WindDirection,WindDirectionDegrees,WindSpeedMPH,WindSpeedGustMPH,Humidity,HourlyPrecipIn,Conditions,Clouds,dailyrainin,SoftwareType,DateUTC
2013-01-22 00:01:00,67.1,64.7,30.03,NE,45,1.0,-999.0,92,0.00,,,0.00,Wunderground v.1.15,2013-01-22 05:01:00,
2013-01-22 00:03:00,67.1,64.7,30.03,NE,45,1.0,-999.0,92,0.00,,,0.00,Wunderground v.1.15,2013-01-22 05:03:00,
2013-01-22 00:06:00,67.1,64.7,30.03,NE,45,1.0,-999.0,92,0.00,,,0.00,Wunderground v.1.15,2013-01-22 05:06:00,
2013-01-22 00:08:00,67.0,64.6,30.03,ENE,68,0.0,-999.0,92,0.00,,,0.00,Wunderground v.1.15,2013-01-22 05:08:00,
2013-01-22 00:11:00,67.0,64.6,30.03,ENE,68,0.0,-999.0,92,0.00,,,0.00,Wunderground v.1.15,2013-01-22 05:11:00,
2013-01-22 00:13:00,66.9,64.5,30.03,ENE,68,0.0,-999.0,92,0.00,,,0.00,Wunderground v.1.15,2013-01-22 05:13:00,
2013-01-22 00:16:00,66.9,64.5,30.03,ENE,68,0.0,-999.0,92,0.00,,,0.00,Wunderground v.1.15,2013-01-22 05:16:00,
2013-01-22 00:18:00,66.9,64.5,30.03,ENE,68,2.0,-999.0,92,0.00,,,0.00,Wunderground v.1.15,2013-01-22 05:18:00,
2013-01-22 00:21:00,66.9,64.5,30.03,ENE,68,2.0,-999.0,92,0.00,,,0.00,Wunderground v.1.15,2013-01-22 05:21:00,
2013-01-22 00:23:00,66.8,64.4,30.03,ENE,68,1.0,-999.0,92,0.00,,,0.00,Wunderground v.1.15,2013-01-22 05:23:00,
2013-01-22 00:26:00,66.8,64.4,30.03,ENE,68,1.0,-999.0,92,0.00,,,0.00,Wunderground v.1.15,2013-01-22 05:26:00,
2013-01-22 00:28:00,66.7,64.3,30.03,ENE,68,1.0,-999.0,92,0.00,,,0.00,Wunderground v.1.15,2013-01-22 05:28:00,
2013-01-22 00:31:00,66.7,64.3,30.03,ENE,68,1.0,-999.0,92,0.00,,,0.00,Wunderground v.1.15,2013-01-22 05:31:00,
2013-01-22 00:33:00,66.7,64.3,30.03,East,90,0.0,-999.0,92,0.00,,,0.00,Wunderground v.1.15,2013-01-22 05:33:00,
2013-01-22 00:36:00,66.7,64.3,30.03,East,90,0.0,-999.0,92,0.00,,,0.00,Wunderground v.1.15,2013-01-22 05:36:00,
2013-01-22 00:38:00,66.6,64.2,30.03,ENE,68,0.0,-999.0,92,0.00,,,0.00,Wunderground v.1.15,2013-01-22 05:38:00,
2013-01-22 00:41:00,66.6,64.2,30.03,ENE,68,0.0,-999.0,92,0.00,,,0.00,Wunderground v.1.15,2013-01-22 05:41:00,
2013-01-22 00:43:00,66.5,64.1,30.03,ESE,113,0.0,-999.0,92,0.00,,,0.00,Wunderground v.1.15,2013-01-22 05:43:00,
2013-01-22 00:46:00,66.5,64.1,30.03,ESE,113,0.0,-999.0,92,0.00,,,0.00,Wunderground v.1.15,2013-01-22 05:46:00,
2013-01-22 00:48:00,66.4,64.0,30.03,ENE,68,1.0,-999.0,92,0.00,,,0.00,Wunderground v.1.15,2013-01-22 05:48:00,
2013-01-22 00:51:00,66.4,64.0,30.03,ENE,68,1.0,-999.0,92,0.00,,,0.00,Wunderground v.1.15,2013-01-22 05:51:00,
2013-01-22 00:53:00,66.3,64.2,30.03,ENE,68,0.0,-999.0,93,0.00,,,0.00,Wunderground v.1.15,2013-01-22 05:53:00,
2013-01-22 00:56:00,66.3,64.2,30.03,ENE,68,0.0,-999.0,93,0.00,,,0.00,Wunderground v.1.15,2013-01-22 05:56:00,
2013-01-22 00:58:00,66.3,64.2,30.03,ENE,68,0.0,-999.0,93,0.00,,,0.00,Wunderground v.1.15,2013-01-22 05:58:00,
2013-01-22 01:01:00,66.3,64.2,30.03,ENE,68,0.0,-999.0,93,0.00,,,0.00,Wunderground v.1.15,2013-01-22 06:01:00,
2013-01-22 01:03:00,66.2,64.1,30.02,ENE,68,0.0,-999.0,93,0.00,,,0.00,Wunderground v.1.15,2013-01-22 06:03:00,
2013-01-22 01:06:00,66.2,64.1,30.02,ENE,68,0.0,-999.0,93,0.00,,,0.00,Wunderground v.1.15,2013-01-22 06:06:00,
2013-01-22 01:08:00,66.2,64.1,30.02,SE,135,0.0,-999.0,93,0.00,,,0.00,Wunderground v.1.15,2013-01-22 06:08:00,
2013-01-22 01:11:00,66.2,64.1,30.02,SE,135,0.0,-999.0,93,0.00,,,0.00,Wunderground v.1.15,2013-01-22 06:11:00,
2013-01-22 01:13:00,66.1,64.0,30.02,SE,135,0.0,-999.0,93,0.00,,,0.00,Wunderground v.1.15,2013-01-22 06:13:00,
2013-01-22 01:16:00,66.1,64.0,30.02,SE,135,0.0,-999.0,93,0.00,,,0.00,Wunderground v.1.15,2013-01-22 06:16:00,
2013-01-22 01:18:00,66.0,63.9,30.02,East,90,0.0,-999.0,93,0.00,,,0.00,Wunderground v.1.15,2013-01-22 06:18:00,
2013-01-22 01:21:00,66.0,63.9,30.02,East,90,0.0,-999.0,93,0.00,,,0.00,Wunderground v.1.15,2013-01-22 06:21:00,
2013-01-22 01:23:00,65.9,63.8,30.02,SE,135,0.0,-999.0,93,0.00,,,0.00,Wunderground v.1.15,2013-01-22 06:23:00,
2013-01-22 01:26:00,65.9,63.8,30.02,SE,135,0.0,-999.0,93,0.00,,,0.00,Wunderground v.1.15,2013-01-22 06:26:00,
2013-01-22 01:28:00,65.8,63.7,30.02,SE,135,1.0,-999.0,93,0.00,,,0.00,Wunderground v.1.15,2013-01-22 06:28:00,
2013-01-22 01:31:00,65.8,63.7,30.02,SE,135,1.0,-999.0,93,0.00,,,0.00,Wunderground v.1.15,2013-01-22 06:31:00,
2013-01-22 01:33:00,65.8,63.7,30.02,ESE,113,0.0,-999.0,93,0.00,,,0.00,Wunderground v.1.15,2013-01-22 06:33:00,
2013-01-22 01:36:00,65.8,63.7,30.02,ESE,113,0.0,-999.0,93,0.00,,,0.00,Wunderground v.1.15,2013-01-22 06:36:00,
2013-01-22 01:38:00,65.7,63.6,30.02,ESE,113,1.0,-999.0,93,0.00,,,0.00,Wunderground v.1.15,2013-01-22 06:38:00,
2013-01-22 01:41:00,65.7,63.6,30.02,ESE,113,1.0,-999.0,93,0.00,,,0.00,Wunderground v.1.15,2013-01-22 06:41:00,
2013-01-22 01:43:00,65.7,63.6,30.01,ENE,68,0.0,-999.0,93,0.00,,,0.00,Wunderground v.1.15,2013-01-22 06:43:00,
2013-01-22 01:46:00,65.7,63.6,30.01,ENE,68,0.0,-999.0,93,0.00,,,0.00,Wunderground v.1.15,2013-01-22 06:46:00,
2013-01-22 01:48:00,65.6,63.5,30.01,ENE,68,0.0,-999.0,93,0.00,,,0.00,Wunderground v.1.15,2013-01-22 06:48:00,
2013-01-22 01:51:00,65.6,63.5,30.01,ENE,68,0.0,-999.0,93,0.00,,,0.00,Wunderground v.1.15,2013-01-22 06:51:00,
2013-01-22 01:53:00,65.6,63.5,30.01,ENE,68,1.0,-999.0,93,0.00,,,0.00,Wunderground v.1.15,2013-01-22 06:53:00,
2013-01-22 01:56:00,65.6,63.5,30.01,ENE,68,1.0,-999.0,93,0.00,,,0.00,Wunderground v.1.15,2013-01-22 06:56:00,
2013-01-22 01:58:00,65.5,63.4,30.02,ENE,68,1.0,-999.0,93,0.00,,,0.00,Wunderground v.1.15,2013-01-22 06:58:00,
2013-01-22 02:01:00,65.5,63.4,30.02,ENE,68,1.0,-999.0,93,0.00,,,0.00,Wunderground v.1.15,2013-01-22 07:01:00,
2013-01-22 02:03:00,65.5,63.4,30.02,ENE,68,2.0,-999.0,93,0.00,,,0.00,Wunderground v.1.15,2013-01-22 07:03:00,
2013-01-22 02:06:00,65.5,63.4,30.02,ENE,68,2.0,-999.0,93,0.00,,,0.00,Wunderground v.1.15,2013-01-22 07:06:00,
2013-01-22 02:11:00,65.4,63.3,30.02,NE,45,2.0,-999.0,93,0.00,,,0.00,Wunderground v.1.15,2013-01-22 07:11:00,
2013-01-22 02:13:00,65.3,63.2,30.02,ENE,68,2.0,-999.0,93,0.00,,,0.00,Wunderground v.1.15,2013-01-22 07:13:00,
2013-01-22 02:16:00,65.3,63.2,30.02,ENE,68,2.0,-999.0,93,0.00,,,0.00,Wunderground v.1.15,2013-01-22 07:16:00,
2013-01-22 02:18:00,65.2,63.1,30.02,ENE,68,2.0,-999.0,93,0.00,,,0.00,Wunderground v.1.15,2013-01-22 07:18:00,
2013-01-22 02:21:00,65.2,63.1,30.02,ENE,68,2.0,-999.0,93,0.00,,,0.00,Wunderground v.1.15,2013-01-22 07:21:00,
2013-01-22 02:23:00,65.1,63.0,30.02,ENE,68,1.0,-999.0,93,0.00,,,0.00,Wunderground v.1.15,2013-01-22 07:23:00,
2013-01-22 02:26:00,65.1,63.0,30.02,ENE,68,1.0,-999.0,93,0.00,,,0.00,Wunderground v.1.15,2013-01-22 07:26:00,
2013-01-22 02:28:00,65.0,62.9,30.02,NE,45,2.0,-999.0,93,0.00,,,0.00,Wunderground v.1.15,2013-01-22 07:28:00,
2013-01-22 02:31:00,65.0,62.9,30.02,NE,45,2.0,-999.0,93,0.00,,,0.00,Wunderground v.1.15,2013-01-22 07:31:00,
2013-01-22 02:33:00,65.0,62.9,30.02,ENE,68,2.0,-999.0,93,0.00,,,0.00,Wunderground v.1.15,2013-01-22 07:33:00,
2013-01-22 02:36:00,65.0,62.9,30.02,ENE,68,2.0,-999.0,93,0.00,,,0.00,Wunderground v.1.15,2013-01-22 07:36:00,
2013-01-22 02:41:00,65.0,62.9,30.02,ENE,68,2.0,-999.0,93,0.00,,,0.00,Wunderground v.1.15,2013-01-22 07:41:00,
2013-01-22 02:43:00,65.0,62.9,30.02,ENE,68,1.0,-999.0,93,0.00,,,0.00,Wunderground v.1.15,2013-01-22 07:43:00,
2013-01-22 02:46:00,65.0,62.9,30.02,ENE,68,1.0,-999.0,93,0.00,,,0.00,Wunderground v.1.15,2013-01-22 07:46:00,
2013-01-22 02:48:00,65.1,63.0,30.01,ENE,68,2.0,-999.0,93,0.00,,,0.00,Wunderground v.1.15,2013-01-22 07:48:00,
2013-01-22 02:51:00,65.1,63.0,30.01,ENE,68,2.0,-999.0,93,0.00,,,0.00,Wunderground v.1.15,2013-01-22 07:51:00,
2013-01-22 02:53:00,65.2,63.4,30.01,ENE,68,3.0,-999.0,94,0.00,,,0.00,Wunderground v.1.15,2013-01-22 07:53:00,
2013-01-22 02:56:00,65.2,63.4,30.01,ENE,68,3.0,-999.0,94,0.00,,,0.00,Wunderground v.1.15,2013-01-22 07:56:00,
2013-01-22 02:58:00,65.3,63.2,30.01,NE,45,1.0,-999.0,93,0.00,,,0.00,Wunderground v.1.15,2013-01-22 07:58:00,
2013-01-22 03:01:00,65.3,63.2,30.01,NE,45,1.0,-999.0,93,0.00,,,0.00,Wunderground v.1.15,2013-01-22 08:01:00,
2013-01-22 03:03:00,65.3,63.2,30.01,East,90,2.0,-999.0,93,0.00,,,0.00,Wunderground v.1.15,2013-01-22 08:03:00,
2013-01-22 03:06:00,65.3,63.2,30.01,East,90,2.0,-999.0,93,0.00,,,0.00,Wunderground v.1.15,2013-01-22 08:06:00,
2013-01-22 03:08:00,65.4,63.3,30.01,ENE,68,2.0,-999.0,93,0.00,,,0.00,Wunderground v.1.15,2013-01-22 08:08:00,
2013-01-22 03:11:00,65.4,63.3,30.01,ENE,68,2.0,-999.0,93,0.00,,,0.00,Wunderground v.1.15,2013-01-22 08:11:00,
2013-01-22 03:13:00,65.4,63.3,30.01,ENE,68,2.0,-999.0,93,0.00,,,0.00,Wunderground v.1.15,2013-01-22 08:13:00,
2013-01-22 03:16:00,65.4,63.3,30.01,ENE,68,2.0,-999.0,93,0.00,,,0.00,Wunderground v.1.15,2013-01-22 08:16:00,
2013-01-22 03:18:00,65.4,63.3,30.01,ENE,68,2.0,-999.0,93,0.00,,,0.00,Wunderground v.1.15,2013-01-22 08:18:00,
2013-01-22 03:21:00,65.4,63.3,30.01,ENE,68,2.0,-999.0,93,0.00,,,0.00,Wunderground v.1.15,2013-01-22 08:21:00,
2013-01-22 03:23:00,65.3,63.2,30.01,ENE,68,1.0,-999.0,93,0.00,,,0.00,Wunderground v.1.15,2013-01-22 08:23:00,
2013-01-22 03:26:00,65.3,63.2,30.01,ENE,68,1.0,-999.0,93,0.00,,,0.00,Wunderground v.1.15,2013-01-22 08:26:00,
2013-01-22 03:28:00,65.3,63.5,30.01,ENE,68,1.0,-999.0,94,0.00,,,0.00,Wunderground v.1.15,2013-01-22 08:28:00,
2013-01-22 03:31:00,65.3,63.5,30.01,ENE,68,1.0,-999.0,94,0.00,,,0.00,Wunderground v.1.15,2013-01-22 08:31:00,
2013-01-22 03:33:00,65.2,63.4,30.01,ENE,68,1.0,-999.0,94,0.00,,,0.00,Wunderground v.1.15,2013-01-22 08:33:00,
2013-01-22 03:36:00,65.2,63.4,30.01,ENE,68,1.0,-999.0,94,0.00,,,0.00,Wunderground v.1.15,2013-01-22 08:36:00,
2013-01-22 03:38:00,65.2,63.4,30.01,ESE,113,1.0,-999.0,94,0.00,,,0.00,Wunderground v.1.15,2013-01-22 08:38:00,
2013-01-22 03:41:00,65.2,63.4,30.01,ESE,113,1.0,-999.0,94,0.00,,,0.00,Wunderground v.1.15,2013-01-22 08:41:00,
2013-01-22 03:43:00,65.1,63.3,30.01,SE,135,1.0,-999.0,94,0.00,,,0.00,Wunderground v.1.15,2013-01-22 08:43:00,
2013-01-22 03:46:00,65.1,63.3,30.01,SE,135,1.0,-999.0,94,0.00,,,0.00,Wunderground v.1.15,2013-01-22 08:46:00,
2013-01-22 03:48:00,65.1,63.3,30.01,East,90,1.0,-999.0,94,0.00,,,0.00,Wunderground v.1.15,2013-01-22 08:48:00,
2013-01-22 03:51:00,65.1,63.3,30.01,East,90,1.0,-999.0,94,0.00,,,0.00,Wunderground v.1.15,2013-01-22 08:51:00,
2013-01-22 03:53:00,65.0,63.2,30.01,East,90,1.0,-999.0,94,0.00,,,0.00,Wunderground v.1.15,2013-01-22 08:53:00,
2013-01-22 03:56:00,65.0,63.2,30.01,East,90,1.0,-999.0,94,0.00,,,0.00,Wunderground v.1.15,2013-01-22 08:56:00,
2013-01-22 03:58:00,65.0,63.2,30.01,NE,45,1.0,-999.0,94,0.00,,,0.00,Wunderground v.1.15,2013-01-22 08:58:00,
2013-01-22 04:01:00,65.0,63.2,30.01,NE,45,1.0,-999.0,94,0.00,,,0.00,Wunderground v.1.15,2013-01-22 09:01:00,
2013-01-22 04:03:00,64.9,62.8,30.01,East,90,1.0,-999.0,93,0.00,,,0.00,Wunderground v.1.15,2013-01-22 09:03:00,
2013-01-22 04:06:00,64.9,62.8,30.01,East,90,1.0,-999.0,93,0.00,,,0.00,Wunderground v.1.15,2013-01-22 09:06:00,
2013-01-22 04:08:00,64.8,62.7,30.01,East,90,1.0,-999.0,93,0.00,,,0.00,Wunderground v.1.15,2013-01-22 09:08:00,
2013-01-22 04:11:00,64.8,62.7,30.01,East,90,1.0,-999.0,93,0.00,,,0.00,Wunderground v.1.15,2013-01-22 09:11:00,
2013-01-22 04:13:00,64.7,62.6,30.01,ESE,113,1.0,-999.0,93,0.00,,,0.00,Wunderground v.1.15,2013-01-22 09:13:00,
2013-01-22 04:16:00,64.7,62.6,30.01,ESE,113,1.0,-999.0,93,0.00,,,0.00,Wunderground v.1.15,2013-01-22 09:16:00,
2013-01-22 04:18:00,64.6,62.5,30.01,East,90,1.0,-999.0,93,0.00,,,0.00,Wunderground v.1.15,2013-01-22 09:18:00,
2013-01-22 04:21:00,64.6,62.5,30.01,East,90,1.0,-999.0,93,0.00,,,0.00,Wunderground v.1.15,2013-01-22 09:21:00,
2013-01-22 04:23:00,64.5,62.4,30.01,ENE,68,0.0,-999.0,93,0.00,,,0.00,Wunderground v.1.15,2013-01-22 09:23:00,
2013-01-22 04:26:00,64.5,62.4,30.01,ENE,68,0.0,-999.0,93,0.00,,,0.00,Wunderground v.1.15,2013-01-22 09:26:00,
2013-01-22 04:28:00,64.4,62.3,30.01,SE,135,0.0,-999.0,93,0.00,,,0.00,Wunderground v.1.15,2013-01-22 09:28:00,
2013-01-22 04:31:00,64.4,62.3,30.01,SE,135,0.0,-999.0,93,0.00,,,0.00,Wunderground v.1.15,2013-01-22 09:31:00,
2013-01-22 04:33:00,64.3,62.2,30.01,SE,135,0.0,-999.0,93,0.00,,,0.00,Wunderground v.1.15,2013-01-22 09:33:00,
2013-01-22 04:36:00,64.3,62.2,30.01,SE,135,0.0,-999.0,93,0.00,,,0.00,Wunderground v.1.15,2013-01-22 09:36:00,
2013-01-22 04:38:00,64.2,62.1,30.01,ENE,68,1.0,-999.0,93,0.00,,,0.00,Wunderground v.1.15,2013-01-22 09:38:00,
2013-01-22 04:41:00,64.2,62.1,30.01,ENE,68,1.0,-999.0,93,0.00,,,0.00,Wunderground v.1.15,2013-01-22 09:41:00,
2013-01-22 04:43:00,64.1,62.0,30.01,East,90,0.0,-999.0,93,0.00,,,0.00,Wunderground v.1.15,2013-01-22 09:43:00,
2013-01-22 04:46:00,64.1,62.0,30.01,East,90,0.0,-999.0,93,0.00,,,0.00,Wunderground v.1.15,2013-01-22 09:46:00,
2013-01-22 04:48:00,64.1,62.0,30.01,ESE,113,0.0,-999.0,93,0.00,,,0.00,Wunderground v.1.15,2013-01-22 09:48:00,
2013-01-22 04:51:00,64.1,62.0,30.01,ESE,113,0.0,-999.0,93,0.00,,,0.00,Wunderground v.1.15,2013-01-22 09:51:00,
2013-01-22 04:53:00,63.9,61.8,30.01,ENE,68,1.0,-999.0,93,0.00,,,0.00,Wunderground v.1.15,2013-01-22 09:53:00,
2013-01-22 04:56:00,63.9,61.8,30.01,ENE,68,1.0,-999.0,93,0.00,,,0.00,Wunderground v.1.15,2013-01-22 09:56:00,
2013-01-22 04:58:00,63.9,61.8,30.01,ENE,68,2.0,-999.0,93,0.00,,,0.00,Wunderground v.1.15,2013-01-22 09:58:00,
2013-01-22 05:01:00,63.9,61.8,30.01,ENE,68,2.0,-999.0,93,0.00,,,0.00,Wunderground v.1.15,2013-01-22 10:01:00,
2013-01-22 05:03:00,63.9,61.8,30.02,ENE,68,0.0,-999.0,93,0.00,,,0.00,Wunderground v.1.15,2013-01-22 10:03:00,
2013-01-22 05:06:00,63.9,61.8,30.02,ENE,68,0.0,-999.0,93,0.00,,,0.00,Wunderground v.1.15,2013-01-22 10:06:00,
2013-01-22 05:08:00,63.9,61.8,30.02,ENE,68,1.0,-999.0,93,0.00,,,0.00,Wunderground v.1.15,2013-01-22 10:08:00,
2013-01-22 05:11:00,63.9,61.8,30.02,ENE,68,1.0,-999.0,93,0.00,,,0.00,Wunderground v.1.15,2013-01-22 10:11:00,
2013-01-22 05:13:00,63.9,61.8,30.03,ENE,68,1.0,-999.0,93,0.00,,,0.00,Wunderground v.1.15,2013-01-22 10:13:00,
2013-01-22 05:16:00,63.9,61.8,30.03,ENE,68,1.0,-999.0,93,0.00,,,0.00,Wunderground v.1.15,2013-01-22 10:16:00,
2013-01-22 05:18:00,63.8,61.7,30.03,ENE,68,1.0,-999.0,93,0.00,,,0.00,Wunderground v.1.15,2013-01-22 10:18:00,
2013-01-22 05:21:00,63.8,61.7,30.03,ENE,68,1.0,-999.0,93,0.00,,,0.00,Wunderground v.1.15,2013-01-22 10:21:00,
2013-01-22 05:23:00,63.7,61.3,30.03,ENE,68,1.0,-999.0,92,0.00,,,0.00,Wunderground v.1.15,2013-01-22 10:23:00,
2013-01-22 05:26:00,63.7,61.3,30.03,ENE,68,1.0,-999.0,92,0.00,,,0.00,Wunderground v.1.15,2013-01-22 10:26:00,
2013-01-22 05:28:00,63.6,61.2,30.03,ENE,68,0.0,-999.0,92,0.00,,,0.00,Wunderground v.1.15,2013-01-22 10:28:00,
2013-01-22 05:31:00,63.6,61.2,30.03,ENE,68,0.0,-999.0,92,0.00,,,0.00,Wunderground v.1.15,2013-01-22 10:31:00,
2013-01-22 05:33:00,63.5,61.1,30.03,East,90,1.0,-999.0,92,0.00,,,0.00,Wunderground v.1.15,2013-01-22 10:33:00,
2013-01-22 05:36:00,63.5,61.1,30.03,East,90,1.0,-999.0,92,0.00,,,0.00,Wunderground v.1.15,2013-01-22 10:36:00,
2013-01-22 05:38:00,63.5,61.1,30.03,ENE,68,1.0,-999.0,92,0.00,,,0.00,Wunderground v.1.15,2013-01-22 10:38:00,
2013-01-22 05:41:00,63.5,61.1,30.03,ENE,68,1.0,-999.0,92,0.00,,,0.00,Wunderground v.1.15,2013-01-22 10:41:00,
2013-01-22 05:43:00,63.5,61.1,30.04,ENE,68,2.0,-999.0,92,0.00,,,0.00,Wunderground v.1.15,2013-01-22 10:43:00,
2013-01-22 05:46:00,63.5,61.1,30.04,ENE,68,2.0,-999.0,92,0.00,,,0.00,Wunderground v.1.15,2013-01-22 10:46:00,
2013-01-22 05:48:00,63.5,61.1,30.04,ESE,113,1.0,-999.0,92,0.00,,,0.00,Wunderground v.1.15,2013-01-22 10:48:00,
2013-01-22 05:51:00,63.5,61.1,30.04,ESE,113,1.0,-999.0,92,0.00,,,0.00,Wunderground v.1.15,2013-01-22 10:51:00,
2013-01-22 05:53:00,63.5,61.1,30.04,ESE,113,1.0,-999.0,92,0.00,,,0.00,Wunderground v.1.15,2013-01-22 10:53:00,
2013-01-22 05:56:00,63.5,61.1,30.04,ESE,113,1.0,-999.0,92,0.00,,,0.00,Wunderground v.1.15,2013-01-22 10:56:00,
2013-01-22 05:58:00,63.5,60.8,30.04,East,90,1.0,-999.0,91,0.00,,,0.00,Wunderground v.1.15,2013-01-22 10:58:00,
2013-01-22 06:01:00,63.5,60.8,30.04,East,90,1.0,-999.0,91,0.00,,,0.00,Wunderground v.1.15,2013-01-22 11:01:00,
2013-01-22 06:03:00,63.5,60.8,30.04,South,180,0.0,-999.0,91,0.00,,,0.00,Wunderground v.1.15,2013-01-22 11:03:00,
2013-01-22 06:06:00,63.5,60.8,30.04,South,180,0.0,-999.0,91,0.00,,,0.00,Wunderground v.1.15,2013-01-22 11:06:00,
2013-01-22 06:08:00,63.4,60.7,30.04,ENE,68,1.0,-999.0,91,0.00,,,0.00,Wunderground v.1.15,2013-01-22 11:08:00,
2013-01-22 06:11:00,63.4,60.7,30.04,ENE,68,1.0,-999.0,91,0.00,,,0.00,Wunderground v.1.15,2013-01-22 11:11:00,
2013-01-22 06:13:00,63.3,60.6,30.04,East,90,0.0,-999.0,91,0.00,,,0.00,Wunderground v.1.15,2013-01-22 11:13:00,
2013-01-22 06:16:00,63.3,60.6,30.04,East,90,0.0,-999.0,91,0.00,,,0.00,Wunderground v.1.15,2013-01-22 11:16:00,
2013-01-22 06:18:00,63.3,60.6,30.05,ENE,68,0.0,-999.0,91,0.00,,,0.00,Wunderground v.1.15,2013-01-22 11:18:00,
2013-01-22 06:21:00,63.3,60.6,30.05,ENE,68,0.0,-999.0,91,0.00,,,0.00,Wunderground v.1.15,2013-01-22 11:21:00,
2013-01-22 06:23:00,63.2,60.5,30.05,East,90,1.0,-999.0,91,0.00,,,0.00,Wunderground v.1.15,2013-01-22 11:23:00,
2013-01-22 06:26:00,63.2,60.5,30.05,East,90,1.0,-999.0,91,0.00,,,0.00,Wunderground v.1.15,2013-01-22 11:26:00,
2013-01-22 06:28:00,63.2,60.5,30.05,ENE,68,1.0,-999.0,91,0.00,,,0.00,Wunderground v.1.15,2013-01-22 11:28:00,
2013-01-22 06:31:00,63.2,60.5,30.05,ENE,68,1.0,-999.0,91,0.00,,,0.00,Wunderground v.1.15,2013-01-22 11:31:00,
2013-01-22 06:33:00,63.2,60.5,30.05,ENE,68,1.0,-999.0,91,0.00,,,0.00,Wunderground v.1.15,2013-01-22 11:33:00,
2013-01-22 06:36:00,63.2,60.5,30.05,ENE,68,1.0,-999.0,91,0.00,,,0.00,Wunderground v.1.15,2013-01-22 11:36:00,
2013-01-22 06:38:00,63.2,60.5,30.05,East,90,1.0,-999.0,91,0.00,,,0.00,Wunderground v.1.15,2013-01-22 11:38:00,
2013-01-22 06:41:00,63.2,60.5,30.05,East,90,1.0,-999.0,91,0.00,,,0.00,Wunderground v.1.15,2013-01-22 11:41:00,
2013-01-22 06:43:00,63.2,60.5,30.06,ENE,68,2.0,-999.0,91,0.00,,,0.00,Wunderground v.1.15,2013-01-22 11:43:00,
2013-01-22 06:46:00,63.2,60.5,30.06,ENE,68,2.0,-999.0,91,0.00,,,0.00,Wunderground v.1.15,2013-01-22 11:46:00,
2013-01-22 06:48:00,63.2,60.5,30.06,ENE,68,1.0,-999.0,91,0.00,,,0.00,Wunderground v.1.15,2013-01-22 11:48:00,
2013-01-22 06:51:00,63.2,60.5,30.06,ENE,68,1.0,-999.0,91,0.00,,,0.00,Wunderground v.1.15,2013-01-22 11:51:00,
2013-01-22 06:53:00,63.0,60.3,30.06,ENE,68,1.0,-999.0,91,0.00,,,0.00,Wunderground v.1.15,2013-01-22 11:53:00,
2013-01-22 06:56:00,63.0,60.3,30.06,ENE,68,1.0,-999.0,91,0.00,,,0.00,Wunderground v.1.15,2013-01-22 11:56:00,
2013-01-22 06:58:00,62.9,60.2,30.06,ENE,68,1.0,-999.0,91,0.00,,,0.00,Wunderground v.1.15,2013-01-22 11:58:00,
2013-01-22 07:01:00,62.9,60.2,30.06,ENE,68,1.0,-999.0,91,0.00,,,0.00,Wunderground v.1.15,2013-01-22 12:01:00,
2013-01-22 07:03:00,62.9,60.2,30.06,ENE,68,1.0,-999.0,91,0.00,,,0.00,Wunderground v.1.15,2013-01-22 12:03:00,
2013-01-22 07:06:00,62.9,60.2,30.06,ENE,68,1.0,-999.0,91,0.00,,,0.00,Wunderground v.1.15,2013-01-22 12:06:00,
2013-01-22 07:08:00,62.8,60.1,30.06,ENE,68,1.0,-999.0,91,0.00,,,0.00,Wunderground v.1.15,2013-01-22 12:08:00,
2013-01-22 07:11:00,62.8,60.1,30.06,ENE,68,1.0,-999.0,91,0.00,,,0.00,Wunderground v.1.15,2013-01-22 12:11:00,
2013-01-22 07:13:00,62.8,60.1,30.07,ENE,68,1.0,-999.0,91,0.00,,,0.00,Wunderground v.1.15,2013-01-22 12:13:00,
2013-01-22 07:16:00,62.8,60.1,30.07,ENE,68,1.0,-999.0,91,0.00,,,0.00,Wunderground v.1.15,2013-01-22 12:16:00,
2013-01-22 07:18:00,62.8,60.1,30.07,ENE,68,1.0,-999.0,91,0.00,,,0.00,Wunderground v.1.15,2013-01-22 12:18:00,
2013-01-22 07:21:00,62.8,60.1,30.07,ENE,68,1.0,-999.0,91,0.00,,,0.00,Wunderground v.1.15,2013-01-22 12:21:00,
2013-01-22 07:23:00,62.8,60.1,30.07,ENE,68,2.0,-999.0,91,0.00,,,0.00,Wunderground v.1.15,2013-01-22 12:23:00,
2013-01-22 07:26:00,62.8,60.1,30.07,ENE,68,2.0,-999.0,91,0.00,,,0.00,Wunderground v.1.15,2013-01-22 12:26:00,
2013-01-22 07:28:00,62.8,60.1,30.07,ENE,68,2.0,-999.0,91,0.00,,,0.00,Wunderground v.1.15,2013-01-22 12:28:00,
2013-01-22 07:31:00,62.8,60.1,30.07,ENE,68,2.0,-999.0,91,0.00,,,0.00,Wunderground v.1.15,2013-01-22 12:31:00,
2013-01-22 07:33:00,62.9,60.2,30.08,ENE,68,1.0,-999.0,91,0.00,,,0.00,Wunderground v.1.15,2013-01-22 12:33:00,
2013-01-22 07:36:00,62.9,60.2,30.08,ENE,68,1.0,-999.0,91,0.00,,,0.00,Wunderground v.1.15,2013-01-22 12:36:00,
2013-01-22 07:38:00,63.0,60.3,30.08,ESE,113,1.0,-999.0,91,0.00,,,0.00,Wunderground v.1.15,2013-01-22 12:38:00,
2013-01-22 07:41:00,63.0,60.3,30.08,ESE,113,1.0,-999.0,91,0.00,,,0.00,Wunderground v.1.15,2013-01-22 12:41:00,
2013-01-22 07:43:00,63.3,60.3,30.08,East,90,1.0,-999.0,90,0.00,,,0.00,Wunderground v.1.15,2013-01-22 12:43:00,
2013-01-22 07:46:00,63.3,60.3,30.08,East,90,1.0,-999.0,90,0.00,,,0.00,Wunderground v.1.15,2013-01-22 12:46:00,
2013-01-22 07:48:00,63.5,60.5,30.08,ENE,68,2.0,-999.0,90,0.00,,,0.00,Wunderground v.1.15,2013-01-22 12:48:00,
2013-01-22 07:51:00,63.5,60.5,30.08,ENE,68,2.0,-999.0,90,0.00,,,0.00,Wunderground v.1.15,2013-01-22 12:51:00,
2013-01-22 07:53:00,64.0,61.0,30.08,SE,135,1.0,-999.0,90,0.00,,,0.00,Wunderground v.1.15,2013-01-22 12:53:00,
2013-01-22 07:56:00,64.0,61.0,30.08,SE,135,1.0,-999.0,90,0.00,,,0.00,Wunderground v.1.15,2013-01-22 12:56:00,
2013-01-22 07:58:00,64.2,60.9,30.08,ENE,68,1.0,-999.0,89,0.00,,,0.00,Wunderground v.1.15,2013-01-22 12:58:00,
2013-01-22 08:01:00,64.2,60.9,30.08,ENE,68,1.0,-999.0,89,0.00,,,0.00,Wunderground v.1.15,2013-01-22 13:01:00,
2013-01-22 08:03:00,64.4,61.1,30.09,ENE,68,0.0,-999.0,89,0.00,,,0.00,Wunderground v.1.15,2013-01-22 13:03:00,
2013-01-22 08:06:00,64.4,61.1,30.09,ENE,68,0.0,-999.0,89,0.00,,,0.00,Wunderground v.1.15,2013-01-22 13:06:00,
2013-01-22 08:08:00,64.7,61.1,30.08,ENE,68,1.0,-999.0,88,0.00,,,0.00,Wunderground v.1.15,2013-01-22 13:08:00,
2013-01-22 08:11:00,64.7,61.1,30.08,ENE,68,1.0,-999.0,88,0.00,,,0.00,Wunderground v.1.15,2013-01-22 13:11:00,
2013-01-22 08:13:00,65.1,61.5,30.09,East,90,1.0,-999.0,88,0.00,,,0.00,Wunderground v.1.15,2013-01-22 13:13:00,
2013-01-22 08:16:00,65.1,61.5,30.09,East,90,1.0,-999.0,88,0.00,,,0.00,Wunderground v.1.15,2013-01-22 13:16:00,
2013-01-22 08:18:00,65.5,61.5,30.09,ENE,68,1.0,-999.0,87,0.00,,,0.00,Wunderground v.1.15,2013-01-22 13:18:00,
2013-01-22 08:21:00,65.5,61.5,30.09,ENE,68,1.0,-999.0,87,0.00,,,0.00,Wunderground v.1.15,2013-01-22 13:21:00,
2013-01-22 08:23:00,65.8,61.5,30.09,ENE,68,1.0,-999.0,86,0.00,,,0.00,Wunderground v.1.15,2013-01-22 13:23:00,
2013-01-22 08:26:00,65.8,61.5,30.09,ENE,68,1.0,-999.0,86,0.00,,,0.00,Wunderground v.1.15,2013-01-22 13:26:00,
2013-01-22 08:28:00,66.1,61.8,30.10,ENE,68,1.0,-999.0,86,0.00,,,0.00,Wunderground v.1.15,2013-01-22 13:28:00,
2013-01-22 08:31:00,66.1,61.8,30.10,ENE,68,1.0,-999.0,86,0.00,,,0.00,Wunderground v.1.15,2013-01-22 13:31:00,
2013-01-22 08:33:00,66.1,61.5,30.10,ESE,113,2.0,-999.0,85,0.00,,,0.00,Wunderground v.1.15,2013-01-22 13:33:00,
2013-01-22 08:36:00,66.1,61.5,30.10,ESE,113,2.0,-999.0,85,0.00,,,0.00,Wunderground v.1.15,2013-01-22 13:36:00,
2013-01-22 08:38:00,66.1,61.1,30.10,East,90,1.0,-999.0,84,0.00,,,0.00,Wunderground v.1.15,2013-01-22 13:38:00,
2013-01-22 08:41:00,66.1,61.1,30.10,East,90,1.0,-999.0,84,0.00,,,0.00,Wunderground v.1.15,2013-01-22 13:41:00,
2013-01-22 08:43:00,66.4,61.8,30.10,ENE,68,1.0,-999.0,85,0.00,,,0.00,Wunderground v.1.15,2013-01-22 13:43:00,
2013-01-22 08:46:00,66.4,61.8,30.10,ENE,68,1.0,-999.0,85,0.00,,,0.00,Wunderground v.1.15,2013-01-22 13:46:00,
2013-01-22 08:48:00,66.7,61.7,30.10,East,90,1.0,-999.0,84,0.00,,,0.00,Wunderground v.1.15,2013-01-22 13:48:00,
2013-01-22 08:51:00,66.7,61.7,30.10,East,90,1.0,-999.0,84,0.00,,,0.00,Wunderground v.1.15,2013-01-22 13:51:00,
2013-01-22 08:53:00,67.1,61.8,30.10,SE,135,2.0,-999.0,83,0.00,,,0.00,Wunderground v.1.15,2013-01-22 13:53:00,
2013-01-22 08:56:00,67.1,61.8,30.10,SE,135,2.0,-999.0,83,0.00,,,0.00,Wunderground v.1.15,2013-01-22 13:56:00,
2013-01-22 08:58:00,67.5,61.8,30.10,SE,135,2.0,-999.0,82,0.00,,,0.00,Wunderground v.1.15,2013-01-22 13:58:00,
2013-01-22 09:01:00,67.5,61.8,30.10,SE,135,2.0,-999.0,82,0.00,,,0.00,Wunderground v.1.15,2013-01-22 14:01:00,
2013-01-22 09:03:00,67.9,61.9,30.10,SE,135,2.0,-999.0,81,0.00,,,0.00,Wunderground v.1.15,2013-01-22 14:03:00,
2013-01-22 09:06:00,67.9,61.9,30.10,SE,135,2.0,-999.0,81,0.00,,,0.00,Wunderground v.1.15,2013-01-22 14:06:00,
2013-01-22 09:08:00,68.3,62.2,30.10,SE,135,2.0,-999.0,81,0.00,,,0.00,Wunderground v.1.15,2013-01-22 14:08:00,
2013-01-22 09:11:00,68.3,62.2,30.10,SE,135,2.0,-999.0,81,0.00,,,0.00,Wunderground v.1.15,2013-01-22 14:11:00,
2013-01-22 09:13:00,68.9,62.5,30.10,SE,135,1.0,-999.0,80,0.00,,,0.00,Wunderground v.1.15,2013-01-22 14:13:00,
2013-01-22 09:16:00,68.9,62.5,30.10,SE,135,1.0,-999.0,80,0.00,,,0.00,Wunderground v.1.15,2013-01-22 14:16:00,
2013-01-22 09:18:00,69.5,62.3,30.10,SE,135,2.0,-999.0,78,0.00,,,0.00,Wunderground v.1.15,2013-01-22 14:18:00,
2013-01-22 09:21:00,69.5,62.3,30.10,SE,135,2.0,-999.0,78,0.00,,,0.00,Wunderground v.1.15,2013-01-22 14:21:00,
2013-01-22 09:23:00,69.8,62.6,30.11,SE,135,2.0,-999.0,78,0.00,,,0.00,Wunderground v.1.15,2013-01-22 14:23:00,
2013-01-22 09:26:00,69.8,62.6,30.11,SE,135,2.0,-999.0,78,0.00,,,0.00,Wunderground v.1.15,2013-01-22 14:26:00,
2013-01-22 09:28:00,70.0,62.8,30.11,SE,135,2.0,-999.0,78,0.00,,,0.00,Wunderground v.1.15,2013-01-22 14:28:00,
2013-01-22 09:31:00,70.0,62.8,30.11,SE,135,2.0,-999.0,78,0.00,,,0.00,Wunderground v.1.15,2013-01-22 14:31:00,
2013-01-22 09:33:00,70.1,62.2,30.11,SE,135,3.0,-999.0,76,0.00,,,0.00,Wunderground v.1.15,2013-01-22 14:33:00,
2013-01-22 09:36:00,70.1,62.2,30.11,SE,135,3.0,-999.0,76,0.00,,,0.00,Wunderground v.1.15,2013-01-22 14:36:00,
2013-01-22 09:38:00,70.2,62.3,30.11,SE,135,2.0,-999.0,76,0.00,,,0.00,Wunderground v.1.15,2013-01-22 14:38:00,
2013-01-22 09:41:00,70.2,62.3,30.11,SE,135,2.0,-999.0,76,0.00,,,0.00,Wunderground v.1.15,2013-01-22 14:41:00,
2013-01-22 09:43:00,70.6,62.7,30.11,SE,135,2.0,-999.0,76,0.00,,,0.00,Wunderground v.1.15,2013-01-22 14:43:00,
2013-01-22 09:46:00,70.6,62.7,30.11,SE,135,2.0,-999.0,76,0.00,,,0.00,Wunderground v.1.15,2013-01-22 14:46:00,
2013-01-22 09:48:00,70.9,61.8,30.11,SE,135,3.0,-999.0,73,0.00,,,0.00,Wunderground v.1.15,2013-01-22 14:48:00,
2013-01-22 09:51:00,70.9,61.8,30.11,SE,135,3.0,-999.0,73,0.00,,,0.00,Wunderground v.1.15,2013-01-22 14:51:00,
2013-01-22 09:53:00,70.8,62.1,30.12,SE,135,3.0,-999.0,74,0.00,,,0.00,Wunderground v.1.15,2013-01-22 14:53:00,
2013-01-22 09:56:00,70.8,62.1,30.12,SE,135,3.0,-999.0,74,0.00,,,0.00,Wunderground v.1.15,2013-01-22 14:56:00,
2013-01-22 09:58:00,70.9,62.2,30.12,SE,135,2.0,-999.0,74,0.00,,,0.00,Wunderground v.1.15,2013-01-22 14:58:00,
2013-01-22 10:01:00,70.9,62.2,30.12,SE,135,2.0,-999.0,74,0.00,,,0.00,Wunderground v.1.15,2013-01-22 15:01:00,
2013-01-22 10:03:00,70.8,62.1,30.12,ESE,113,3.0,-999.0,74,0.00,,,0.00,Wunderground v.1.15,2013-01-22 15:03:00,
2013-01-22 10:06:00,70.8,62.1,30.12,ESE,113,3.0,-999.0,74,0.00,,,0.00,Wunderground v.1.15,2013-01-22 15:06:00,
2013-01-22 10:08:00,71.0,62.3,30.12,SE,135,2.0,-999.0,74,0.00,,,0.00,Wunderground v.1.15,2013-01-22 15:08:00,
2013-01-22 10:11:00,71.0,62.3,30.12,SE,135,2.0,-999.0,74,0.00,,,0.00,Wunderground v.1.15,2013-01-22 15:11:00,
2013-01-22 10:13:00,71.1,61.6,30.12,SE,135,2.0,-999.0,72,0.00,,,0.00,Wunderground v.1.15,2013-01-22 15:13:00,
2013-01-22 10:16:00,71.1,61.6,30.12,SE,135,2.0,-999.0,72,0.00,,,0.00,Wunderground v.1.15,2013-01-22 15:16:00,
2013-01-22 10:18:00,71.0,61.9,30.12,SE,135,3.0,-999.0,73,0.00,,,0.00,Wunderground v.1.15,2013-01-22 15:18:00,
2013-01-22 10:21:00,71.0,61.9,30.12,SE,135,3.0,-999.0,73,0.00,,,0.00,Wunderground v.1.15,2013-01-22 15:21:00,
2013-01-22 10:23:00,71.0,61.9,30.12,SE,135,2.0,-999.0,73,0.00,,,0.00,Wunderground v.1.15,2013-01-22 15:23:00,
2013-01-22 10:26:00,71.0,61.9,30.12,SE,135,2.0,-999.0,73,0.00,,,0.00,Wunderground v.1.15,2013-01-22 15:26:00,
2013-01-22 10:28:00,71.4,62.7,30.12,SE,135,1.0,-999.0,74,0.00,,,0.00,Wunderground v.1.15,2013-01-22 15:28:00,
2013-01-22 10:31:00,71.4,62.7,30.12,SE,135,1.0,-999.0,74,0.00,,,0.00,Wunderground v.1.15,2013-01-22 15:31:00,
2013-01-22 10:33:00,71.7,62.6,30.12,SE,135,2.0,-999.0,73,0.00,,,0.00,Wunderground v.1.15,2013-01-22 15:33:00,
2013-01-22 10:36:00,71.7,62.6,30.12,SE,135,2.0,-999.0,73,0.00,,,0.00,Wunderground v.1.15,2013-01-22 15:36:00,
2013-01-22 10:38:00,71.6,62.1,30.12,SE,135,2.0,-999.0,72,0.00,,,0.00,Wunderground v.1.15,2013-01-22 15:38:00,
2013-01-22 10:41:00,71.6,62.1,30.12,SE,135,2.0,-999.0,72,0.00,,,0.00,Wunderground v.1.15,2013-01-22 15:41:00,
2013-01-22 10:43:00,71.7,62.2,30.12,SE,135,3.0,-999.0,72,0.00,,,0.00,Wunderground v.1.15,2013-01-22 15:43:00,
2013-01-22 10:46:00,71.7,62.2,30.12,SE,135,3.0,-999.0,72,0.00,,,0.00,Wunderground v.1.15,2013-01-22 15:46:00,
2013-01-22 10:48:00,72.3,63.2,30.12,SE,135,1.0,-999.0,73,0.00,,,0.00,Wunderground v.1.15,2013-01-22 15:48:00,
2013-01-22 10:51:00,72.3,63.2,30.12,SE,135,1.0,-999.0,73,0.00,,,0.00,Wunderground v.1.15,2013-01-22 15:51:00,
2013-01-22 10:53:00,72.6,62.7,30.12,SE,135,2.0,-999.0,71,0.00,,,0.00,Wunderground v.1.15,2013-01-22 15:53:00,
2013-01-22 10:56:00,72.6,62.7,30.12,SE,135,2.0,-999.0,71,0.00,,,0.00,Wunderground v.1.15,2013-01-22 15:56:00,
2013-01-22 10:58:00,72.9,62.5,30.12,SE,135,3.0,-999.0,70,0.00,,,0.00,Wunderground v.1.15,2013-01-22 15:58:00,
2013-01-22 11:01:00,72.9,62.5,30.12,SE,135,3.0,-999.0,70,0.00,,,0.00,Wunderground v.1.15,2013-01-22 16:01:00,
2013-01-22 11:03:00,73.2,62.8,30.12,SE,135,2.0,-999.0,70,0.00,,,0.00,Wunderground v.1.15,2013-01-22 16:03:00,
2013-01-22 11:06:00,73.2,62.8,30.12,SE,135,2.0,-999.0,70,0.00,,,0.00,Wunderground v.1.15,2013-01-22 16:06:00,
2013-01-22 11:08:00,73.2,62.4,30.12,SE,135,2.0,-999.0,69,0.00,,,0.00,Wunderground v.1.15,2013-01-22 16:08:00,
2013-01-22 11:11:00,73.2,62.4,30.12,SE,135,2.0,-999.0,69,0.00,,,0.00,Wunderground v.1.15,2013-01-22 16:11:00,
2013-01-22 11:13:00,73.3,62.5,30.12,SE,135,2.0,-999.0,69,0.00,,,0.00,Wunderground v.1.15,2013-01-22 16:13:00,
2013-01-22 11:16:00,73.3,62.5,30.12,SE,135,2.0,-999.0,69,0.00,,,0.00,Wunderground v.1.15,2013-01-22 16:16:00,
2013-01-22 11:18:00,73.8,63.0,30.12,SE,135,2.0,-999.0,69,0.00,,,0.00,Wunderground v.1.15,2013-01-22 16:18:00,
2013-01-22 11:21:00,73.8,63.0,30.12,SE,135,2.0,-999.0,69,0.00,,,0.00,Wunderground v.1.15,2013-01-22 16:21:00,
2013-01-22 11:23:00,74.2,63.0,30.11,ESE,113,2.0,-999.0,68,0.00,,,0.00,Wunderground v.1.15,2013-01-22 16:23:00,
2013-01-22 11:26:00,74.2,63.0,30.11,ESE,113,2.0,-999.0,68,0.00,,,0.00,Wunderground v.1.15,2013-01-22 16:26:00,
2013-01-22 11:28:00,74.5,63.2,30.11,SE,135,2.0,-999.0,68,0.00,,,0.00,Wunderground v.1.15,2013-01-22 16:28:00,
2013-01-22 11:31:00,74.5,63.2,30.11,SE,135,2.0,-999.0,68,0.00,,,0.00,Wunderground v.1.15,2013-01-22 16:31:00,
2013-01-22 11:33:00,74.3,62.6,30.11,ESE,113,3.0,-999.0,67,0.00,,,0.00,Wunderground v.1.15,2013-01-22 16:33:00,
2013-01-22 11:36:00,74.3,62.6,30.11,ESE,113,3.0,-999.0,67,0.00,,,0.00,Wunderground v.1.15,2013-01-22 16:36:00,
2013-01-22 11:38:00,74.3,62.6,30.11,SE,135,2.0,-999.0,67,0.00,,,0.00,Wunderground v.1.15,2013-01-22 16:38:00,
2013-01-22 11:41:00,74.3,62.6,30.11,SE,135,2.0,-999.0,67,0.00,,,0.00,Wunderground v.1.15,2013-01-22 16:41:00,
2013-01-22 11:43:00,74.2,62.5,30.11,ESE,113,2.0,-999.0,67,0.00,,,0.00,Wunderground v.1.15,2013-01-22 16:43:00,
2013-01-22 11:46:00,74.2,62.5,30.11,ESE,113,2.0,-999.0,67,0.00,,,0.00,Wunderground v.1.15,2013-01-22 16:46:00,
2013-01-22 11:48:00,74.1,62.9,30.11,SSE,158,3.0,-999.0,68,0.00,,,0.00,Wunderground v.1.15,2013-01-22 16:48:00,
2013-01-22 11:51:00,74.1,62.9,30.11,SSE,158,3.0,-999.0,68,0.00,,,0.00,Wunderground v.1.15,2013-01-22 16:51:00,
2013-01-22 11:53:00,74.4,62.7,30.11,SE,135,3.0,-999.0,67,0.00,,,0.00,Wunderground v.1.15,2013-01-22 16:53:00,
2013-01-22 11:56:00,74.4,62.7,30.11,SE,135,3.0,-999.0,67,0.00,,,0.00,Wunderground v.1.15,2013-01-22 16:56:00,
2013-01-22 11:58:00,75.0,63.3,30.11,SE,135,2.0,-999.0,67,0.00,,,0.00,Wunderground v.1.15,2013-01-22 16:58:00,
2013-01-22 12:01:00,75.0,63.3,30.11,SE,135,2.0,-999.0,67,0.00,,,0.00,Wunderground v.1.15,2013-01-22 17:01:00,
2013-01-22 12:03:00,75.3,62.7,30.11,SE,135,3.0,-999.0,65,0.00,,,0.00,Wunderground v.1.15,2013-01-22 17:03:00,
2013-01-22 12:06:00,75.3,62.7,30.11,SE,135,3.0,-999.0,65,0.00,,,0.00,Wunderground v.1.15,2013-01-22 17:06:00,
2013-01-22 12:08:00,75.7,63.5,30.10,SE,135,3.0,-999.0,66,0.00,,,0.00,Wunderground v.1.15,2013-01-22 17:08:00,
2013-01-22 12:11:00,75.7,63.5,30.10,SE,135,3.0,-999.0,66,0.00,,,0.00,Wunderground v.1.15,2013-01-22 17:11:00,
2013-01-22 12:13:00,75.7,63.1,30.10,SE,135,3.0,-999.0,65,0.00,,,0.00,Wunderground v.1.15,2013-01-22 17:13:00,
2013-01-22 12:16:00,75.7,63.1,30.10,SE,135,3.0,-999.0,65,0.00,,,0.00,Wunderground v.1.15,2013-01-22 17:16:00,
2013-01-22 12:18:00,75.8,62.8,30.10,SE,135,3.0,-999.0,64,0.00,,,0.00,Wunderground v.1.15,2013-01-22 17:18:00,
2013-01-22 12:21:00,75.8,62.8,30.10,SE,135,3.0,-999.0,64,0.00,,,0.00,Wunderground v.1.15,2013-01-22 17:21:00,
2013-01-22 12:23:00,75.3,62.7,30.10,SE,135,3.0,-999.0,65,0.00,,,0.00,Wunderground v.1.15,2013-01-22 17:23:00,
2013-01-22 12:26:00,75.3,62.7,30.10,SE,135,3.0,-999.0,65,0.00,,,0.00,Wunderground v.1.15,2013-01-22 17:26:00,
2013-01-22 12:28:00,74.9,62.8,30.10,SE,135,3.0,-999.0,66,0.00,,,0.00,Wunderground v.1.15,2013-01-22 17:28:00,
2013-01-22 12:31:00,74.9,62.8,30.10,SE,135,3.0,-999.0,66,0.00,,,0.00,Wunderground v.1.15,2013-01-22 17:31:00,
2013-01-22 12:33:00,74.8,62.7,30.09,SE,135,2.0,-999.0,66,0.00,,,0.00,Wunderground v.1.15,2013-01-22 17:33:00,
2013-01-22 12:36:00,74.8,62.7,30.09,SE,135,2.0,-999.0,66,0.00,,,0.00,Wunderground v.1.15,2013-01-22 17:36:00,
2013-01-22 12:38:00,74.7,63.0,30.09,SE,135,2.0,-999.0,67,0.00,,,0.00,Wunderground v.1.15,2013-01-22 17:38:00,
2013-01-22 12:41:00,74.7,63.0,30.09,SE,135,2.0,-999.0,67,0.00,,,0.00,Wunderground v.1.15,2013-01-22 17:41:00,
2013-01-22 12:43:00,74.6,62.5,30.09,SE,135,2.0,-999.0,66,0.00,,,0.00,Wunderground v.1.15,2013-01-22 17:43:00,
2013-01-22 12:46:00,74.6,62.5,30.09,SE,135,2.0,-999.0,66,0.00,,,0.00,Wunderground v.1.15,2013-01-22 17:46:00,
2013-01-22 12:48:00,74.6,63.3,30.09,SE,135,2.0,-999.0,68,0.00,,,0.00,Wunderground v.1.15,2013-01-22 17:48:00,
2013-01-22 12:51:00,74.6,63.3,30.09,SE,135,2.0,-999.0,68,0.00,,,0.00,Wunderground v.1.15,2013-01-22 17:51:00,
2013-01-22 12:53:00,74.9,63.2,30.09,SE,135,2.0,-999.0,67,0.00,,,0.00,Wunderground v.1.15,2013-01-22 17:53:00,
2013-01-22 12:56:00,74.9,63.2,30.09,SE,135,2.0,-999.0,67,0.00,,,0.00,Wunderground v.1.15,2013-01-22 17:56:00,
2013-01-22 12:58:00,74.8,62.7,30.09,SSE,158,4.0,-999.0,66,0.00,,,0.00,Wunderground v.1.15,2013-01-22 17:58:00,
2013-01-22 13:01:00,74.8,62.7,30.09,SSE,158,4.0,-999.0,66,0.00,,,0.00,Wunderground v.1.15,2013-01-22 18:01:00,
2013-01-22 13:03:00,74.9,62.8,30.08,SE,135,2.0,-999.0,66,0.00,,,0.00,Wunderground v.1.15,2013-01-22 18:03:00,
2013-01-22 13:06:00,74.9,62.8,30.08,SE,135,2.0,-999.0,66,0.00,,,0.00,Wunderground v.1.15,2013-01-22 18:06:00,
2013-01-22 13:08:00,74.7,62.6,30.08,SE,135,2.0,-999.0,66,0.00,,,0.00,Wunderground v.1.15,2013-01-22 18:08:00,
2013-01-22 13:11:00,74.7,62.6,30.08,SE,135,2.0,-999.0,66,0.00,,,0.00,Wunderground v.1.15,2013-01-22 18:11:00,
2013-01-22 13:13:00,75.3,63.2,30.08,SE,135,1.0,-999.0,66,0.00,,,0.00,Wunderground v.1.15,2013-01-22 18:13:00,
2013-01-22 13:16:00,75.3,63.2,30.08,SE,135,1.0,-999.0,66,0.00,,,0.00,Wunderground v.1.15,2013-01-22 18:16:00,
2013-01-22 13:18:00,75.6,63.0,30.08,SE,135,4.0,-999.0,65,0.00,,,0.00,Wunderground v.1.15,2013-01-22 18:18:00,
2013-01-22 13:21:00,75.6,63.0,30.08,SE,135,4.0,-999.0,65,0.00,,,0.00,Wunderground v.1.15,2013-01-22 18:21:00,
2013-01-22 13:23:00,75.9,63.7,30.07,SE,135,3.0,-999.0,66,0.00,,,0.00,Wunderground v.1.15,2013-01-22 18:23:00,
2013-01-22 13:26:00,75.9,63.7,30.07,SE,135,3.0,-999.0,66,0.00,,,0.00,Wunderground v.1.15,2013-01-22 18:26:00,
2013-01-22 13:28:00,76.2,63.1,30.08,SE,135,5.0,-999.0,64,0.00,,,0.00,Wunderground v.1.15,2013-01-22 18:28:00,
2013-01-22 13:31:00,76.2,63.1,30.08,SE,135,5.0,-999.0,64,0.00,,,0.00,Wunderground v.1.15,2013-01-22 18:31:00,
2013-01-22 13:33:00,76.2,63.1,30.08,SE,135,2.0,-999.0,64,0.00,,,0.00,Wunderground v.1.15,2013-01-22 18:33:00,
2013-01-22 13:36:00,76.2,63.1,30.08,SE,135,2.0,-999.0,64,0.00,,,0.00,Wunderground v.1.15,2013-01-22 18:36:00,
2013-01-22 13:38:00,76.2,63.1,30.08,SE,135,2.0,-999.0,64,0.00,,,0.00,Wunderground v.1.15,2013-01-22 18:38:00,
2013-01-22 13:41:00,76.2,63.1,30.08,SE,135,2.0,-999.0,64,0.00,,,0.00,Wunderground v.1.15,2013-01-22 18:41:00,
2013-01-22 13:43:00,76.5,63.0,30.08,SE,135,3.0,-999.0,63,0.00,,,0.00,Wunderground v.1.15,2013-01-22 18:43:00,
2013-01-22 13:46:00,76.5,63.0,30.08,SE,135,3.0,-999.0,63,0.00,,,0.00,Wunderground v.1.15,2013-01-22 18:46:00,
2013-01-22 13:48:00,76.1,62.6,30.07,SE,135,4.0,-999.0,63,0.00,,,0.00,Wunderground v.1.15,2013-01-22 18:48:00,
2013-01-22 13:51:00,76.1,62.6,30.07,SE,135,4.0,-999.0,63,0.00,,,0.00,Wunderground v.1.15,2013-01-22 18:51:00,
2013-01-22 13:53:00,75.5,62.5,30.07,SE,135,3.0,-999.0,64,0.00,,,0.00,Wunderground v.1.15,2013-01-22 18:53:00,
2013-01-22 13:56:00,75.5,62.5,30.07,SE,135,3.0,-999.0,64,0.00,,,0.00,Wunderground v.1.15,2013-01-22 18:56:00,
2013-01-22 13:58:00,75.1,61.6,30.08,SE,135,3.0,-999.0,63,0.00,,,0.00,Wunderground v.1.15,2013-01-22 18:58:00,
2013-01-22 14:01:00,75.1,61.6,30.08,SE,135,3.0,-999.0,63,0.00,,,0.00,Wunderground v.1.15,2013-01-22 19:01:00,
2013-01-22 14:03:00,74.7,61.3,30.08,SSE,158,6.0,-999.0,63,0.00,,,0.00,Wunderground v.1.15,2013-01-22 19:03:00,
2013-01-22 14:06:00,74.7,61.3,30.08,SSE,158,6.0,-999.0,63,0.00,,,0.00,Wunderground v.1.15,2013-01-22 19:06:00,
2013-01-22 14:08:00,74.9,61.5,30.07,SE,135,5.0,-999.0,63,0.00,,,0.00,Wunderground v.1.15,2013-01-22 19:08:00,
2013-01-22 14:11:00,74.9,61.5,30.07,SE,135,5.0,-999.0,63,0.00,,,0.00,Wunderground v.1.15,2013-01-22 19:11:00,
2013-01-22 14:13:00,75.4,61.5,30.07,SE,135,4.0,-999.0,62,0.00,,,0.00,Wunderground v.1.15,2013-01-22 19:13:00,
2013-01-22 14:16:00,75.4,61.5,30.07,SE,135,4.0,-999.0,62,0.00,,,0.00,Wunderground v.1.15,2013-01-22 19:16:00,
2013-01-22 14:18:00,75.7,61.8,30.07,SSE,158,3.0,-999.0,62,0.00,,,0.00,Wunderground v.1.15,2013-01-22 19:18:00,
2013-01-22 14:21:00,75.7,61.8,30.07,SSE,158,3.0,-999.0,62,0.00,,,0.00,Wunderground v.1.15,2013-01-22 19:21:00,
2013-01-22 14:23:00,75.3,60.9,30.07,SE,135,3.0,-999.0,61,0.00,,,0.00,Wunderground v.1.15,2013-01-22 19:23:00,
2013-01-22 14:26:00,75.3,60.9,30.07,SE,135,3.0,-999.0,61,0.00,,,0.00,Wunderground v.1.15,2013-01-22 19:26:00,
2013-01-22 14:28:00,75.4,61.5,30.07,SE,135,3.0,-999.0,62,0.00,,,0.00,Wunderground v.1.15,2013-01-22 19:28:00,
2013-01-22 14:31:00,75.4,61.5,30.07,SE,135,3.0,-999.0,62,0.00,,,0.00,Wunderground v.1.15,2013-01-22 19:31:00,
2013-01-22 14:33:00,75.5,61.1,30.07,SE,135,4.0,-999.0,61,0.00,,,0.00,Wunderground v.1.15,2013-01-22 19:33:00,
2013-01-22 14:36:00,75.5,61.1,30.07,SE,135,4.0,-999.0,61,0.00,,,0.00,Wunderground v.1.15,2013-01-22 19:36:00,
2013-01-22 14:38:00,76.0,61.1,30.07,SE,135,4.0,-999.0,60,0.00,,,0.00,Wunderground v.1.15,2013-01-22 19:38:00,
2013-01-22 14:41:00,76.0,61.1,30.07,SE,135,4.0,-999.0,60,0.00,,,0.00,Wunderground v.1.15,2013-01-22 19:41:00,
2013-01-22 14:43:00,76.1,61.7,30.07,SSE,158,6.0,-999.0,61,0.00,,,0.00,Wunderground v.1.15,2013-01-22 19:43:00,
2013-01-22 14:46:00,76.1,61.7,30.07,SSE,158,6.0,-999.0,61,0.00,,,0.00,Wunderground v.1.15,2013-01-22 19:46:00,
2013-01-22 14:48:00,75.6,61.7,30.07,SE,135,4.0,-999.0,62,0.00,,,0.00,Wunderground v.1.15,2013-01-22 19:48:00,
2013-01-22 14:51:00,75.6,61.7,30.07,SE,135,4.0,-999.0,62,0.00,,,0.00,Wunderground v.1.15,2013-01-22 19:51:00,
2013-01-22 14:53:00,74.7,61.3,30.08,SE,135,5.0,-999.0,63,0.00,,,0.00,Wunderground v.1.15,2013-01-22 19:53:00,
2013-01-22 14:56:00,74.7,61.3,30.08,SE,135,5.0,-999.0,63,0.00,,,0.00,Wunderground v.1.15,2013-01-22 19:56:00,
2013-01-22 14:58:00,74.1,61.1,30.08,SSE,158,7.0,-999.0,64,0.00,,,0.00,Wunderground v.1.15,2013-01-22 19:58:00,
2013-01-22 15:01:00,74.1,61.1,30.08,SSE,158,7.0,-999.0,64,0.00,,,0.00,Wunderground v.1.15,2013-01-22 20:01:00,
2013-01-22 15:03:00,73.8,61.3,30.08,SSE,158,5.0,-999.0,65,0.00,,,0.00,Wunderground v.1.15,2013-01-22 20:03:00,
2013-01-22 15:06:00,73.8,61.3,30.08,SSE,158,5.0,-999.0,65,0.00,,,0.00,Wunderground v.1.15,2013-01-22 20:06:00,
2013-01-22 15:08:00,73.6,62.0,30.08,SSE,158,6.0,-999.0,67,0.00,,,0.00,Wunderground v.1.15,2013-01-22 20:08:00,
2013-01-22 15:11:00,73.6,62.0,30.08,SSE,158,6.0,-999.0,67,0.00,,,0.00,Wunderground v.1.15,2013-01-22 20:11:00,
2013-01-22 15:13:00,73.8,61.3,30.08,SSE,158,6.0,-999.0,65,0.00,,,0.00,Wunderground v.1.15,2013-01-22 20:13:00,
2013-01-22 15:16:00,73.8,61.3,30.08,SSE,158,6.0,-999.0,65,0.00,,,0.00,Wunderground v.1.15,2013-01-22 20:16:00,
2013-01-22 15:18:00,74.1,61.6,30.08,SE,135,6.0,-999.0,65,0.00,,,0.00,Wunderground v.1.15,2013-01-22 20:18:00,
2013-01-22 15:21:00,74.1,61.6,30.08,SE,135,6.0,-999.0,65,0.00,,,0.00,Wunderground v.1.15,2013-01-22 20:21:00,
2013-01-22 15:23:00,74.2,61.7,30.08,SE,135,5.0,-999.0,65,0.00,,,0.00,Wunderground v.1.15,2013-01-22 20:23:00,
2013-01-22 15:26:00,74.2,61.7,30.08,SE,135,5.0,-999.0,65,0.00,,,0.00,Wunderground v.1.15,2013-01-22 20:26:00,
2013-01-22 15:28:00,74.6,61.2,30.08,SE,135,5.0,-999.0,63,0.00,,,0.00,Wunderground v.1.15,2013-01-22 20:28:00,
2013-01-22 15:31:00,74.6,61.2,30.08,SE,135,5.0,-999.0,63,0.00,,,0.00,Wunderground v.1.15,2013-01-22 20:31:00,
2013-01-22 15:33:00,74.5,61.5,30.08,SE,135,5.0,-999.0,64,0.00,,,0.00,Wunderground v.1.15,2013-01-22 20:33:00,
2013-01-22 15:36:00,74.5,61.5,30.08,SE,135,5.0,-999.0,64,0.00,,,0.00,Wunderground v.1.15,2013-01-22 20:36:00,
2013-01-22 15:38:00,74.7,61.3,30.08,SSE,158,5.0,-999.0,63,0.00,,,0.00,Wunderground v.1.15,2013-01-22 20:38:00,
2013-01-22 15:41:00,74.7,61.3,30.08,SSE,158,5.0,-999.0,63,0.00,,,0.00,Wunderground v.1.15,2013-01-22 20:41:00,
2013-01-22 15:43:00,74.7,61.7,30.09,SSE,158,7.0,-999.0,64,0.00,,,0.00,Wunderground v.1.15,2013-01-22 20:43:00,
2013-01-22 15:46:00,74.7,61.7,30.09,SSE,158,7.0,-999.0,64,0.00,,,0.00,Wunderground v.1.15,2013-01-22 20:46:00,
2013-01-22 15:48:00,74.6,61.2,30.09,SE,135,6.0,-999.0,63,0.00,,,0.00,Wunderground v.1.15,2013-01-22 20:48:00,
2013-01-22 15:51:00,74.6,61.2,30.09,SE,135,6.0,-999.0,63,0.00,,,0.00,Wunderground v.1.15,2013-01-22 20:51:00,
2013-01-22 15:53:00,74.1,61.1,30.10,SE,135,4.0,-999.0,64,0.00,,,0.00,Wunderground v.1.15,2013-01-22 20:53:00,
2013-01-22 15:56:00,74.1,61.1,30.10,SE,135,4.0,-999.0,64,0.00,,,0.00,Wunderground v.1.15,2013-01-22 20:56:00,
2013-01-22 15:58:00,73.8,61.3,30.09,SE,135,3.0,-999.0,65,0.00,,,0.00,Wunderground v.1.15,2013-01-22 20:58:00,
2013-01-22 16:01:00,73.8,61.3,30.09,SE,135,3.0,-999.0,65,0.00,,,0.00,Wunderground v.1.15,2013-01-22 21:01:00,
2013-01-22 16:03:00,73.4,60.5,30.10,SE,135,4.0,-999.0,64,0.00,,,0.00,Wunderground v.1.15,2013-01-22 21:03:00,
2013-01-22 16:06:00,73.4,60.5,30.10,SE,135,4.0,-999.0,64,0.00,,,0.00,Wunderground v.1.15,2013-01-22 21:06:00,
2013-01-22 16:08:00,73.2,61.2,30.10,SE,135,4.0,-999.0,66,0.00,,,0.00,Wunderground v.1.15,2013-01-22 21:08:00,
2013-01-22 16:11:00,73.2,61.2,30.10,SE,135,4.0,-999.0,66,0.00,,,0.00,Wunderground v.1.15,2013-01-22 21:11:00,
2013-01-22 16:13:00,73.7,60.8,30.10,SSE,158,5.0,-999.0,64,0.00,,,0.00,Wunderground v.1.15,2013-01-22 21:13:00,
2013-01-22 16:16:00,73.7,60.8,30.10,SSE,158,5.0,-999.0,64,0.00,,,0.00,Wunderground v.1.15,2013-01-22 21:16:00,
2013-01-22 16:18:00,74.0,61.0,30.10,SE,135,5.0,-999.0,64,0.00,,,0.00,Wunderground v.1.15,2013-01-22 21:18:00,
2013-01-22 16:21:00,74.0,61.0,30.10,SE,135,5.0,-999.0,64,0.00,,,0.00,Wunderground v.1.15,2013-01-22 21:21:00,
2013-01-22 16:23:00,73.9,60.5,30.10,SE,135,5.0,-999.0,63,0.00,,,0.00,Wunderground v.1.15,2013-01-22 21:23:00,
2013-01-22 16:26:00,73.9,60.5,30.10,SE,135,5.0,-999.0,63,0.00,,,0.00,Wunderground v.1.15,2013-01-22 21:26:00,
2013-01-22 16:28:00,73.6,60.7,30.10,SE,135,5.0,-999.0,64,0.00,,,0.00,Wunderground v.1.15,2013-01-22 21:28:00,
2013-01-22 16:31:00,73.6,60.7,30.10,SE,135,5.0,-999.0,64,0.00,,,0.00,Wunderground v.1.15,2013-01-22 21:31:00,
2013-01-22 16:33:00,73.5,60.1,30.10,SE,135,3.0,-999.0,63,0.00,,,0.00,Wunderground v.1.15,2013-01-22 21:33:00,
2013-01-22 16:36:00,73.5,60.1,30.10,SE,135,3.0,-999.0,63,0.00,,,0.00,Wunderground v.1.15,2013-01-22 21:36:00,
2013-01-22 16:38:00,73.1,60.2,30.10,SE,135,3.0,-999.0,64,0.00,,,0.00,Wunderground v.1.15,2013-01-22 21:38:00,
2013-01-22 16:41:00,73.1,60.2,30.10,SE,135,3.0,-999.0,64,0.00,,,0.00,Wunderground v.1.15,2013-01-22 21:41:00,
2013-01-22 16:43:00,72.9,60.4,30.11,SE,135,2.0,-999.0,65,0.00,,,0.00,Wunderground v.1.15,2013-01-22 21:43:00,
2013-01-22 16:46:00,72.9,60.4,30.11,SE,135,2.0,-999.0,65,0.00,,,0.00,Wunderground v.1.15,2013-01-22 21:46:00,
2013-01-22 16:48:00,73.0,60.5,30.11,SE,135,2.0,-999.0,65,0.00,,,0.00,Wunderground v.1.15,2013-01-22 21:48:00,
2013-01-22 16:51:00,73.0,60.5,30.11,SE,135,2.0,-999.0,65,0.00,,,0.00,Wunderground v.1.15,2013-01-22 21:51:00,
2013-01-22 16:53:00,72.8,59.9,30.11,SE,135,3.0,-999.0,64,0.00,,,0.00,Wunderground v.1.15,2013-01-22 21:53:00,
2013-01-22 16:56:00,72.8,59.9,30.11,SE,135,3.0,-999.0,64,0.00,,,0.00,Wunderground v.1.15,2013-01-22 21:56:00,
2013-01-22 16:58:00,72.9,60.4,30.11,SE,135,2.0,-999.0,65,0.00,,,0.00,Wunderground v.1.15,2013-01-22 21:58:00,
2013-01-22 17:01:00,72.9,60.4,30.11,SE,135,2.0,-999.0,65,0.00,,,0.00,Wunderground v.1.15,2013-01-22 22:01:00,
2013-01-22 17:03:00,72.8,60.3,30.12,SE,135,3.0,-999.0,65,0.00,,,0.00,Wunderground v.1.15,2013-01-22 22:03:00,
2013-01-22 17:06:00,72.8,60.3,30.12,SE,135,3.0,-999.0,65,0.00,,,0.00,Wunderground v.1.15,2013-01-22 22:06:00,
2013-01-22 17:08:00,72.5,60.1,30.12,SE,135,3.0,-999.0,65,0.00,,,0.00,Wunderground v.1.15,2013-01-22 22:08:00,
2013-01-22 17:11:00,72.5,60.1,30.12,SE,135,3.0,-999.0,65,0.00,,,0.00,Wunderground v.1.15,2013-01-22 22:11:00,
2013-01-22 17:13:00,72.0,60.0,30.12,SE,135,4.0,-999.0,66,0.00,,,0.00,Wunderground v.1.15,2013-01-22 22:13:00,
2013-01-22 17:16:00,72.0,60.0,30.12,SE,135,4.0,-999.0,66,0.00,,,0.00,Wunderground v.1.15,2013-01-22 22:16:00,
2013-01-22 17:18:00,71.6,60.1,30.12,SE,135,3.0,-999.0,67,0.00,,,0.00,Wunderground v.1.15,2013-01-22 22:18:00,
2013-01-22 17:21:00,71.6,60.1,30.12,SE,135,3.0,-999.0,67,0.00,,,0.00,Wunderground v.1.15,2013-01-22 22:21:00,
2013-01-22 17:23:00,71.2,59.7,30.12,SSE,158,3.0,-999.0,67,0.00,,,0.00,Wunderground v.1.15,2013-01-22 22:23:00,
2013-01-22 17:26:00,71.2,59.7,30.12,SSE,158,3.0,-999.0,67,0.00,,,0.00,Wunderground v.1.15,2013-01-22 22:26:00,
2013-01-22 17:28:00,71.0,59.9,30.12,SE,135,2.0,-999.0,68,0.00,,,0.00,Wunderground v.1.15,2013-01-22 22:28:00,
2013-01-22 17:31:00,71.0,59.9,30.12,SE,135,2.0,-999.0,68,0.00,,,0.00,Wunderground v.1.15,2013-01-22 22:31:00,
2013-01-22 17:33:00,70.7,60.0,30.13,SE,135,2.0,-999.0,69,0.00,,,0.00,Wunderground v.1.15,2013-01-22 22:33:00,
2013-01-22 17:36:00,70.7,60.0,30.13,SE,135,2.0,-999.0,69,0.00,,,0.00,Wunderground v.1.15,2013-01-22 22:36:00,
2013-01-22 17:38:00,70.5,59.8,30.13,SE,135,2.0,-999.0,69,0.00,,,0.00,Wunderground v.1.15,2013-01-22 22:38:00,
2013-01-22 17:41:00,70.5,59.8,30.13,SE,135,2.0,-999.0,69,0.00,,,0.00,Wunderground v.1.15,2013-01-22 22:41:00,
2013-01-22 17:43:00,70.5,59.8,30.13,SE,135,3.0,-999.0,69,0.00,,,0.00,Wunderground v.1.15,2013-01-22 22:43:00,
2013-01-22 17:46:00,70.5,59.8,30.13,SE,135,3.0,-999.0,69,0.00,,,0.00,Wunderground v.1.15,2013-01-22 22:46:00,
2013-01-22 17:48:00,70.3,59.6,30.13,SE,135,1.0,-999.0,69,0.00,,,0.00,Wunderground v.1.15,2013-01-22 22:48:00,
2013-01-22 17:51:00,70.3,59.6,30.13,SE,135,1.0,-999.0,69,0.00,,,0.00,Wunderground v.1.15,2013-01-22 22:51:00,
2013-01-22 17:53:00,70.4,60.1,30.13,SE,135,2.0,-999.0,70,0.00,,,0.00,Wunderground v.1.15,2013-01-22 22:53:00,
2013-01-22 17:56:00,70.4,60.1,30.13,SE,135,2.0,-999.0,70,0.00,,,0.00,Wunderground v.1.15,2013-01-22 22:56:00,
2013-01-22 17:58:00,70.5,59.8,30.13,SE,135,4.0,-999.0,69,0.00,,,0.00,Wunderground v.1.15,2013-01-22 22:58:00,
2013-01-22 18:01:00,70.5,59.8,30.13,SE,135,4.0,-999.0,69,0.00,,,0.00,Wunderground v.1.15,2013-01-22 23:01:00,
2013-01-22 18:03:00,70.7,59.6,30.14,SSE,158,4.0,-999.0,68,0.00,,,0.00,Wunderground v.1.15,2013-01-22 23:03:00,
2013-01-22 18:06:00,70.7,59.6,30.14,SSE,158,4.0,-999.0,68,0.00,,,0.00,Wunderground v.1.15,2013-01-22 23:06:00,
2013-01-22 18:08:00,70.9,59.8,30.14,SE,135,5.0,-999.0,68,0.00,,,0.00,Wunderground v.1.15,2013-01-22 23:08:00,
2013-01-22 18:11:00,70.9,59.8,30.14,SE,135,5.0,-999.0,68,0.00,,,0.00,Wunderground v.1.15,2013-01-22 23:11:00,
2013-01-22 18:13:00,70.9,59.4,30.14,SE,135,6.0,-999.0,67,0.00,,,0.00,Wunderground v.1.15,2013-01-22 23:13:00,
2013-01-22 18:16:00,70.9,59.4,30.14,SE,135,6.0,-999.0,67,0.00,,,0.00,Wunderground v.1.15,2013-01-22 23:16:00,
2013-01-22 18:18:00,71.0,59.5,30.14,SE,135,4.0,-999.0,67,0.00,,,0.00,Wunderground v.1.15,2013-01-22 23:18:00,
2013-01-22 18:21:00,71.0,59.5,30.14,SE,135,4.0,-999.0,67,0.00,,,0.00,Wunderground v.1.15,2013-01-22 23:21:00,
2013-01-22 18:23:00,71.0,59.9,30.14,SE,135,4.0,-999.0,68,0.00,,,0.00,Wunderground v.1.15,2013-01-22 23:23:00,
2013-01-22 18:26:00,71.0,59.9,30.14,SE,135,4.0,-999.0,68,0.00,,,0.00,Wunderground v.1.15,2013-01-22 23:26:00,
2013-01-22 18:28:00,70.9,59.8,30.14,SSE,158,4.0,-999.0,68,0.00,,,0.00,Wunderground v.1.15,2013-01-22 23:28:00,
2013-01-22 18:31:00,70.9,59.8,30.14,SSE,158,4.0,-999.0,68,0.00,,,0.00,Wunderground v.1.15,2013-01-22 23:31:00,
2013-01-22 18:33:00,70.9,59.8,30.14,SSE,158,5.0,-999.0,68,0.00,,,0.00,Wunderground v.1.15,2013-01-22 23:33:00,
2013-01-22 18:36:00,70.9,59.8,30.14,SSE,158,5.0,-999.0,68,0.00,,,0.00,Wunderground v.1.15,2013-01-22 23:36:00,
2013-01-22 18:38:00,70.8,59.3,30.14,SSE,158,5.0,-999.0,67,0.00,,,0.00,Wunderground v.1.15,2013-01-22 23:38:00,
2013-01-22 18:41:00,70.8,59.3,30.14,SSE,158,5.0,-999.0,67,0.00,,,0.00,Wunderground v.1.15,2013-01-22 23:41:00,
2013-01-22 18:43:00,70.8,59.3,30.14,SSE,158,7.0,-999.0,67,0.00,,,0.00,Wunderground v.1.15,2013-01-22 23:43:00,
2013-01-22 18:46:00,70.8,59.3,30.14,SSE,158,7.0,-999.0,67,0.00,,,0.00,Wunderground v.1.15,2013-01-22 23:46:00,
2013-01-22 18:48:00,70.7,59.6,30.14,SSE,158,6.0,-999.0,68,0.00,,,0.00,Wunderground v.1.15,2013-01-22 23:48:00,
2013-01-22 18:51:00,70.7,59.6,30.14,SSE,158,6.0,-999.0,68,0.00,,,0.00,Wunderground v.1.15,2013-01-22 23:51:00,
2013-01-22 18:53:00,70.7,59.6,30.14,SSE,158,5.0,-999.0,68,0.00,,,0.00,Wunderground v.1.15,2013-01-22 23:53:00,
2013-01-22 18:56:00,70.7,59.6,30.14,SSE,158,5.0,-999.0,68,0.00,,,0.00,Wunderground v.1.15,2013-01-22 23:56:00,
2013-01-22 18:58:00,70.6,59.1,30.14,SSE,158,6.0,-999.0,67,0.00,,,0.00,Wunderground v.1.15,2013-01-22 23:58:00,
2013-01-22 19:01:00,70.6,59.1,30.14,SSE,158,6.0,-999.0,67,0.00,,,0.00,Wunderground v.1.15,2013-01-23 00:01:00,
2013-01-22 19:03:00,70.5,59.0,30.15,SSE,158,6.0,-999.0,67,0.00,,,0.00,Wunderground v.1.15,2013-01-23 00:03:00,
2013-01-22 19:06:00,70.5,59.0,30.15,SSE,158,6.0,-999.0,67,0.00,,,0.00,Wunderground v.1.15,2013-01-23 00:06:00,
2013-01-22 19:08:00,70.5,59.4,30.15,SSE,158,5.0,-999.0,68,0.00,,,0.00,Wunderground v.1.15,2013-01-23 00:08:00,
2013-01-22 19:11:00,70.5,59.4,30.15,SSE,158,5.0,-999.0,68,0.00,,,0.00,Wunderground v.1.15,2013-01-23 00:11:00,
2013-01-22 19:13:00,70.3,59.2,30.15,SSE,158,4.0,-999.0,68,0.00,,,0.00,Wunderground v.1.15,2013-01-23 00:13:00,
2013-01-22 19:16:00,70.3,59.2,30.15,SSE,158,4.0,-999.0,68,0.00,,,0.00,Wunderground v.1.15,2013-01-23 00:16:00,
2013-01-22 19:18:00,70.3,59.2,30.15,SSE,158,4.0,-999.0,68,0.00,,,0.00,Wunderground v.1.15,2013-01-23 00:18:00,
2013-01-22 19:21:00,70.3,59.2,30.15,SSE,158,4.0,-999.0,68,0.00,,,0.00,Wunderground v.1.15,2013-01-23 00:21:00,
2013-01-22 19:23:00,70.3,59.2,30.15,SSE,158,5.0,-999.0,68,0.00,,,0.00,Wunderground v.1.15,2013-01-23 00:23:00,
2013-01-22 19:26:00,70.3,59.2,30.15,SSE,158,5.0,-999.0,68,0.00,,,0.00,Wunderground v.1.15,2013-01-23 00:26:00,
2013-01-22 19:28:00,70.2,59.1,30.15,SE,135,4.0,-999.0,68,0.00,,,0.00,Wunderground v.1.15,2013-01-23 00:28:00,
2013-01-22 19:31:00,70.2,59.1,30.15,SE,135,4.0,-999.0,68,0.00,,,0.00,Wunderground v.1.15,2013-01-23 00:31:00,
2013-01-22 19:33:00,70.2,58.7,30.16,SSE,158,5.0,-999.0,67,0.00,,,0.00,Wunderground v.1.15,2013-01-23 00:33:00,
2013-01-22 19:36:00,70.2,58.7,30.16,SSE,158,5.0,-999.0,67,0.00,,,0.00,Wunderground v.1.15,2013-01-23 00:36:00,
2013-01-22 19:38:00,70.1,58.6,30.16,SSE,158,5.0,-999.0,67,0.00,,,0.00,Wunderground v.1.15,2013-01-23 00:38:00,
2013-01-22 19:41:00,70.1,58.6,30.16,SSE,158,5.0,-999.0,67,0.00,,,0.00,Wunderground v.1.15,2013-01-23 00:41:00,
2013-01-22 19:43:00,70.1,58.6,30.16,SSE,158,4.0,-999.0,67,0.00,,,0.00,Wunderground v.1.15,2013-01-23 00:43:00,
2013-01-22 19:46:00,70.1,58.6,30.16,SSE,158,4.0,-999.0,67,0.00,,,0.00,Wunderground v.1.15,2013-01-23 00:46:00,
2013-01-22 19:48:00,70.0,58.1,30.16,SSE,158,6.0,-999.0,66,0.00,,,0.00,Wunderground v.1.15,2013-01-23 00:48:00,
2013-01-22 19:51:00,70.0,58.1,30.16,SSE,158,6.0,-999.0,66,0.00,,,0.00,Wunderground v.1.15,2013-01-23 00:51:00,
2013-01-22 19:53:00,70.1,58.6,30.16,SSE,158,6.0,-999.0,67,0.00,,,0.00,Wunderground v.1.15,2013-01-23 00:53:00,
2013-01-22 19:56:00,70.1,58.6,30.16,SSE,158,6.0,-999.0,67,0.00,,,0.00,Wunderground v.1.15,2013-01-23 00:56:00,
2013-01-22 19:58:00,70.0,58.1,30.16,SSE,158,4.0,-999.0,66,0.00,,,0.00,Wunderground v.1.15,2013-01-23 00:58:00,
2013-01-22 20:01:00,70.0,58.1,30.16,SSE,158,4.0,-999.0,66,0.00,,,0.00,Wunderground v.1.15,2013-01-23 01:01:00,
2013-01-22 20:03:00,70.0,57.7,30.16,SSE,158,6.0,-999.0,65,0.00,,,0.00,Wunderground v.1.15,2013-01-23 01:03:00,
2013-01-22 20:06:00,70.0,57.7,30.16,SSE,158,6.0,-999.0,65,0.00,,,0.00,Wunderground v.1.15,2013-01-23 01:06:00,
2013-01-22 20:08:00,70.0,58.1,30.16,SSE,158,6.0,-999.0,66,0.00,,,0.00,Wunderground v.1.15,2013-01-23 01:08:00,
2013-01-22 20:11:00,70.0,58.1,30.16,SSE,158,6.0,-999.0,66,0.00,,,0.00,Wunderground v.1.15,2013-01-23 01:11:00,
2013-01-22 20:13:00,70.0,58.1,30.16,SSE,158,5.0,-999.0,66,0.00,,,0.00,Wunderground v.1.15,2013-01-23 01:13:00,
2013-01-22 20:16:00,70.0,58.1,30.16,SSE,158,5.0,-999.0,66,0.00,,,0.00,Wunderground v.1.15,2013-01-23 01:16:00,
2013-01-22 20:18:00,69.9,58.0,30.16,SSE,158,4.0,-999.0,66,0.00,,,0.00,Wunderground v.1.15,2013-01-23 01:18:00,
2013-01-22 20:21:00,69.9,58.0,30.16,SSE,158,4.0,-999.0,66,0.00,,,0.00,Wunderground v.1.15,2013-01-23 01:21:00,
2013-01-22 20:23:00,69.9,57.6,30.17,SSE,158,5.0,-999.0,65,0.00,,,0.00,Wunderground v.1.15,2013-01-23 01:23:00,
2013-01-22 20:26:00,69.9,57.6,30.17,SSE,158,5.0,-999.0,65,0.00,,,0.00,Wunderground v.1.15,2013-01-23 01:26:00,
2013-01-22 20:28:00,69.8,57.5,30.17,SSE,158,3.0,-999.0,65,0.00,,,0.00,Wunderground v.1.15,2013-01-23 01:28:00,
2013-01-22 20:31:00,69.8,57.5,30.17,SSE,158,3.0,-999.0,65,0.00,,,0.00,Wunderground v.1.15,2013-01-23 01:31:00,
2013-01-22 20:33:00,69.8,57.5,30.17,SSE,158,4.0,-999.0,65,0.00,,,0.00,Wunderground v.1.15,2013-01-23 01:33:00,
2013-01-22 20:36:00,69.8,57.5,30.17,SSE,158,4.0,-999.0,65,0.00,,,0.00,Wunderground v.1.15,2013-01-23 01:36:00,
2013-01-22 20:38:00,69.8,57.5,30.17,SSE,158,4.0,-999.0,65,0.00,,,0.00,Wunderground v.1.15,2013-01-23 01:38:00,
2013-01-22 20:41:00,69.8,57.5,30.17,SSE,158,4.0,-999.0,65,0.00,,,0.00,Wunderground v.1.15,2013-01-23 01:41:00,
2013-01-22 20:43:00,69.9,57.6,30.17,SSE,158,5.0,-999.0,65,0.00,,,0.00,Wunderground v.1.15,2013-01-23 01:43:00,
2013-01-22 20:46:00,69.9,57.6,30.17,SSE,158,5.0,-999.0,65,0.00,,,0.00,Wunderground v.1.15,2013-01-23 01:46:00,
2013-01-22 20:48:00,69.9,57.2,30.17,SSE,158,6.0,-999.0,64,0.00,,,0.00,Wunderground v.1.15,2013-01-23 01:48:00,
2013-01-22 20:51:00,69.9,57.2,30.17,SSE,158,6.0,-999.0,64,0.00,,,0.00,Wunderground v.1.15,2013-01-23 01:51:00,
2013-01-22 20:53:00,70.0,57.3,30.17,SSE,158,6.0,-999.0,64,0.00,,,0.00,Wunderground v.1.15,2013-01-23 01:53:00,
2013-01-22 20:56:00,70.0,57.3,30.17,SSE,158,6.0,-999.0,64,0.00,,,0.00,Wunderground v.1.15,2013-01-23 01:56:00,
2013-01-22 20:58:00,70.0,57.3,30.18,SSE,158,6.0,-999.0,64,0.00,,,0.00,Wunderground v.1.15,2013-01-23 01:58:00,
2013-01-22 21:01:00,70.0,57.3,30.18,SSE,158,6.0,-999.0,64,0.00,,,0.00,Wunderground v.1.15,2013-01-23 02:01:00,
2013-01-22 21:03:00,70.0,56.8,30.18,SSE,158,7.0,-999.0,63,0.00,,,0.00,Wunderground v.1.15,2013-01-23 02:03:00,
2013-01-22 21:06:00,70.0,56.8,30.18,SSE,158,7.0,-999.0,63,0.00,,,0.00,Wunderground v.1.15,2013-01-23 02:06:00,
2013-01-22 21:08:00,70.0,56.4,30.18,SSE,158,6.0,-999.0,62,0.00,,,0.00,Wunderground v.1.15,2013-01-23 02:08:00,
2013-01-22 21:11:00,70.0,56.4,30.18,SSE,158,6.0,-999.0,62,0.00,,,0.00,Wunderground v.1.15,2013-01-23 02:11:00,
2013-01-22 21:13:00,70.1,56.9,30.19,SSE,158,4.0,-999.0,63,0.00,,,0.00,Wunderground v.1.15,2013-01-23 02:13:00,
2013-01-22 21:16:00,70.1,56.9,30.19,SSE,158,4.0,-999.0,63,0.00,,,0.00,Wunderground v.1.15,2013-01-23 02:16:00,
2013-01-22 21:18:00,70.1,56.9,30.19,SSE,158,6.0,-999.0,63,0.00,,,0.00,Wunderground v.1.15,2013-01-23 02:18:00,
2013-01-22 21:21:00,70.1,56.9,30.19,SSE,158,6.0,-999.0,63,0.00,,,0.00,Wunderground v.1.15,2013-01-23 02:21:00,
2013-01-22 21:23:00,70.2,57.0,30.19,SSE,158,5.0,-999.0,63,0.00,,,0.00,Wunderground v.1.15,2013-01-23 02:23:00,
2013-01-22 21:26:00,70.2,57.0,30.19,SSE,158,5.0,-999.0,63,0.00,,,0.00,Wunderground v.1.15,2013-01-23 02:26:00,
2013-01-22 21:28:00,70.2,57.0,30.19,SSE,158,5.0,-999.0,63,0.00,,,0.00,Wunderground v.1.15,2013-01-23 02:28:00,
2013-01-22 21:31:00,70.2,57.0,30.19,SSE,158,5.0,-999.0,63,0.00,,,0.00,Wunderground v.1.15,2013-01-23 02:31:00,
2013-01-22 21:33:00,70.2,57.4,30.19,SSE,158,6.0,-999.0,64,0.00,,,0.00,Wunderground v.1.15,2013-01-23 02:33:00,
2013-01-22 21:36:00,70.2,57.4,30.19,SSE,158,6.0,-999.0,64,0.00,,,0.00,Wunderground v.1.15,2013-01-23 02:36:00,
2013-01-22 21:38:00,70.1,57.4,30.20,SSE,158,4.0,-999.0,64,0.00,,,0.00,Wunderground v.1.15,2013-01-23 02:38:00,
2013-01-22 21:41:00,70.1,57.4,30.20,SSE,158,4.0,-999.0,64,0.00,,,0.00,Wunderground v.1.15,2013-01-23 02:41:00,
2013-01-22 21:43:00,70.1,57.4,30.20,SSE,158,5.0,-999.0,64,0.00,,,0.00,Wunderground v.1.15,2013-01-23 02:43:00,
2013-01-22 21:46:00,70.1,57.4,30.20,SSE,158,5.0,-999.0,64,0.00,,,0.00,Wunderground v.1.15,2013-01-23 02:46:00,
2013-01-22 21:48:00,70.1,57.4,30.20,SSE,158,5.0,-999.0,64,0.00,,,0.00,Wunderground v.1.15,2013-01-23 02:48:00,
2013-01-22 21:51:00,70.1,57.4,30.20,SSE,158,5.0,-999.0,64,0.00,,,0.00,Wunderground v.1.15,2013-01-23 02:51:00,
2013-01-22 21:53:00,70.1,56.9,30.20,SSE,158,6.0,-999.0,63,0.00,,,0.00,Wunderground v.1.15,2013-01-23 02:53:00,
2013-01-22 21:56:00,70.1,56.9,30.20,SSE,158,6.0,-999.0,63,0.00,,,0.00,Wunderground v.1.15,2013-01-23 02:56:00,
2013-01-22 21:58:00,70.1,56.5,30.20,SSE,158,5.0,-999.0,62,0.00,,,0.00,Wunderground v.1.15,2013-01-23 02:58:00,
2013-01-22 22:01:00,70.1,56.5,30.20,SSE,158,5.0,-999.0,62,0.00,,,0.00,Wunderground v.1.15,2013-01-23 03:01:00,
2013-01-22 22:03:00,70.1,56.5,30.20,SSE,158,6.0,-999.0,62,0.00,,,0.00,Wunderground v.1.15,2013-01-23 03:03:00,
2013-01-22 22:06:00,70.1,56.5,30.20,SSE,158,6.0,-999.0,62,0.00,,,0.00,Wunderground v.1.15,2013-01-23 03:06:00,
2013-01-22 22:08:00,70.1,56.5,30.21,SSE,158,5.0,-999.0,62,0.00,,,0.00,Wunderground v.1.15,2013-01-23 03:08:00,
2013-01-22 22:11:00,70.1,56.5,30.21,SSE,158,5.0,-999.0,62,0.00,,,0.00,Wunderground v.1.15,2013-01-23 03:11:00,
2013-01-22 22:13:00,70.1,56.9,30.20,SSE,158,5.0,-999.0,63,0.00,,,0.00,Wunderground v.1.15,2013-01-23 03:13:00,
2013-01-22 22:16:00,70.1,56.9,30.20,SSE,158,5.0,-999.0,63,0.00,,,0.00,Wunderground v.1.15,2013-01-23 03:16:00,
2013-01-22 22:18:00,70.1,57.4,30.20,SSE,158,3.0,-999.0,64,0.00,,,0.00,Wunderground v.1.15,2013-01-23 03:18:00,
2013-01-22 22:21:00,70.1,57.4,30.20,SSE,158,3.0,-999.0,64,0.00,,,0.00,Wunderground v.1.15,2013-01-23 03:21:00,
2013-01-22 22:23:00,70.0,56.8,30.20,SSE,158,3.0,-999.0,63,0.00,,,0.00,Wunderground v.1.15,2013-01-23 03:23:00,
2013-01-22 22:26:00,70.0,56.8,30.20,SSE,158,3.0,-999.0,63,0.00,,,0.00,Wunderground v.1.15,2013-01-23 03:26:00,
2013-01-22 22:28:00,69.9,56.3,30.20,SSE,158,6.0,-999.0,62,0.00,,,0.00,Wunderground v.1.15,2013-01-23 03:28:00,
2013-01-22 22:31:00,69.9,56.3,30.20,SSE,158,6.0,-999.0,62,0.00,,,0.00,Wunderground v.1.15,2013-01-23 03:31:00,
2013-01-22 22:33:00,70.0,56.8,30.20,SSE,158,5.0,-999.0,63,0.00,,,0.00,Wunderground v.1.15,2013-01-23 03:33:00,
2013-01-22 22:36:00,70.0,56.8,30.20,SSE,158,5.0,-999.0,63,0.00,,,0.00,Wunderground v.1.15,2013-01-23 03:36:00,
2013-01-22 22:38:00,70.0,55.9,30.20,SSE,158,6.0,-999.0,61,0.00,,,0.00,Wunderground v.1.15,2013-01-23 03:38:00,
2013-01-22 22:41:00,70.0,55.9,30.20,SSE,158,6.0,-999.0,61,0.00,,,0.00,Wunderground v.1.15,2013-01-23 03:41:00,
2013-01-22 22:43:00,70.0,56.4,30.20,SSE,158,5.0,-999.0,62,0.00,,,0.00,Wunderground v.1.15,2013-01-23 03:43:00,
2013-01-22 22:46:00,70.0,56.4,30.20,SSE,158,5.0,-999.0,62,0.00,,,0.00,Wunderground v.1.15,2013-01-23 03:46:00,
2013-01-22 22:48:00,69.9,56.3,30.20,SSE,158,4.0,-999.0,62,0.00,,,0.00,Wunderground v.1.15,2013-01-23 03:48:00,
2013-01-22 22:51:00,69.9,56.3,30.20,SSE,158,4.0,-999.0,62,0.00,,,0.00,Wunderground v.1.15,2013-01-23 03:51:00,
2013-01-22 22:53:00,69.8,56.2,30.19,SSE,158,6.0,-999.0,62,0.00,,,0.00,Wunderground v.1.15,2013-01-23 03:53:00,
2013-01-22 22:56:00,69.8,56.2,30.19,SSE,158,6.0,-999.0,62,0.00,,,0.00,Wunderground v.1.15,2013-01-23 03:56:00,
2013-01-22 22:58:00,69.9,56.7,30.19,SSE,158,6.0,-999.0,63,0.00,,,0.00,Wunderground v.1.15,2013-01-23 03:58:00,
2013-01-22 23:01:00,69.9,56.7,30.19,SSE,158,6.0,-999.0,63,0.00,,,0.00,Wunderground v.1.15,2013-01-23 04:01:00,
2013-01-22 23:03:00,70.0,57.7,30.20,SSE,158,5.0,-999.0,65,0.00,,,0.00,Wunderground v.1.15,2013-01-23 04:03:00,
2013-01-22 23:06:00,70.0,57.7,30.20,SSE,158,5.0,-999.0,65,0.00,,,0.00,Wunderground v.1.15,2013-01-23 04:06:00,
2013-01-22 23:08:00,70.1,57.8,30.20,SSE,158,6.0,-999.0,65,0.00,,,0.00,Wunderground v.1.15,2013-01-23 04:08:00,
2013-01-22 23:11:00,70.1,57.8,30.20,SSE,158,6.0,-999.0,65,0.00,,,0.00,Wunderground v.1.15,2013-01-23 04:11:00,
2013-01-22 23:13:00,70.0,57.7,30.20,SSE,158,7.0,-999.0,65,0.00,,,0.00,Wunderground v.1.15,2013-01-23 04:13:00,
2013-01-22 23:16:00,70.0,57.7,30.20,SSE,158,7.0,-999.0,65,0.00,,,0.00,Wunderground v.1.15,2013-01-23 04:16:00,
2013-01-22 23:18:00,70.0,57.7,30.20,SSE,158,7.0,-999.0,65,0.00,,,0.00,Wunderground v.1.15,2013-01-23 04:18:00,
2013-01-22 23:21:00,70.0,57.7,30.20,SSE,158,7.0,-999.0,65,0.00,,,0.00,Wunderground v.1.15,2013-01-23 04:21:00,
2013-01-22 23:23:00,70.0,57.7,30.19,SSE,158,7.0,-999.0,65,0.00,,,0.00,Wunderground v.1.15,2013-01-23 04:23:00,
2013-01-22 23:26:00,70.0,57.7,30.19,SSE,158,7.0,-999.0,65,0.00,,,0.00,Wunderground v.1.15,2013-01-23 04:26:00,
2013-01-22 23:28:00,70.0,58.1,30.19,SSE,158,7.0,-999.0,66,0.00,,,0.00,Wunderground v.1.15,2013-01-23 04:28:00,
2013-01-22 23:31:00,70.0,58.1,30.19,SSE,158,7.0,-999.0,66,0.00,,,0.00,Wunderground v.1.15,2013-01-23 04:31:00,
2013-01-22 23:33:00,69.9,57.6,30.19,SSE,158,5.0,-999.0,65,0.00,,,0.00,Wunderground v.1.15,2013-01-23 04:33:00,
2013-01-22 23:36:00,69.9,57.6,30.19,SSE,158,5.0,-999.0,65,0.00,,,0.00,Wunderground v.1.15,2013-01-23 04:36:00,
2013-01-22 23:38:00,69.9,57.2,30.19,SSE,158,6.0,-999.0,64,0.00,,,0.00,Wunderground v.1.15,2013-01-23 04:38:00,
2013-01-22 23:41:00,69.9,57.2,30.19,SSE,158,6.0,-999.0,64,0.00,,,0.00,Wunderground v.1.15,2013-01-23 04:41:00,
2013-01-22 23:43:00,69.8,57.5,30.19,SSE,158,8.0,-999.0,65,0.00,,,0.00,Wunderground v.1.15,2013-01-23 04:43:00,
2013-01-22 23:46:00,69.8,57.5,30.19,SSE,158,8.0,-999.0,65,0.00,,,0.00,Wunderground v.1.15,2013-01-23 04:46:00,
2013-01-22 23:48:00,69.8,57.5,30.19,SSE,158,6.0,-999.0,65,0.00,,,0.00,Wunderground v.1.15,2013-01-23 04:48:00,
2013-01-22 23:51:00,69.8,57.5,30.19,SSE,158,6.0,-999.0,65,0.00,,,0.00,Wunderground v.1.15,2013-01-23 04:51:00,
2013-01-22 23:53:00,69.8,57.9,30.19,SSE,158,8.0,-999.0,66,0.00,,,0.00,Wunderground v.1.15,2013-01-23 04:53:00,
2013-01-22 23:56:00,69.8,57.9,30.19,SSE,158,8.0,-999.0,66,0.00,,,0.00,Wunderground v.1.15,2013-01-23 04:56:00,
2013-01-22 23:58:00,69.7,57.0,30.19,SSE,158,5.0,-999.0,64,0.00,,,0.00,Wunderground v.1.15,2013-01-23 04:58:00,